GEFSGL_con_probscp_144.txt.gz
Probability
38 30 21 17 14 11 9 8 7 6 8 13 16 17 21 23 22 19 17 16 13 9 8 9 11 11 12 16 16 16 14 10 5 3 4 8 12 13 11 13 12 7 4
37 32 24 19 16 13 12 11 9 8 9 13 17 19 21 22 21 17 14 14 13 10 8 9 11 12 14 17 17 16 15 11 5 3 5 8 12 13 13 11 9 6 4
41 38 31 24 21 19 17 15 12 10 11 14 17 20 21 21 18 15 13 13 13 11 9 9 12 14 16 18 19 18 14 10 6 4 4 6 9 11 13 11 8 7 5
48 45 37 29 27 26 23 20 16 13 13 16 18 19 19 17 15 13 13 13 13 13 12 11 11 12 14 16 19 19 16 10 7 5 4 4 6 9 11 10 8 7 5
53 49 41 34 32 31 29 26 23 19 17 18 18 17 15 12 10 10 10 11 13 15 15 13 9 7 7 9 12 15 14 11 9 7 6 5 6 8 9 8 7 4 3
56 51 45 39 35 32 31 31 31 27 23 20 18 16 12 9 6 4 6 9 11 14 16 14 8 4 3 3 4 5 6 7 7 8 8 6 5 6 8 7 5 3 1
57 53 48 42 36 31 30 32 33 30 26 22 18 16 13 9 4 1 2 5 8 11 14 14 10 6 5 5 3 2 2 3 4 5 6 7 6 6 8 7 5 3 1
58 54 48 43 38 33 30 31 31 29 25 23 21 19 16 10 3 0 1 3 7 10 14 15 13 10 7 6 6 6 6 5 3 2 4 5 6 5 6 5 4 2 1
59 56 50 44 40 36 33 32 32 29 26 25 25 23 19 11 3 0 1 3 7 11 14 15 13 9 5 4 6 9 9 7 3 1 2 2 2 2 2 2 1 0 0
61 59 53 47 42 38 37 37 34 30 27 26 25 24 19 12 5 1 1 3 6 10 13 12 9 5 2 1 3 7 8 6 3 1 1 0 0 0 1 1 1 0 0
62 60 55 49 44 41 40 39 36 31 27 25 25 23 19 13 6 2 1 1 4 7 9 8 5 1 0 0 1 3 4 4 4 3 1 0 0 0 0 0 0 0 0
62 59 53 47 43 42 41 39 37 34 28 23 21 19 17 13 7 3 1 0 1 4 6 6 2 0 0 0 0 1 1 2 4 3 1 0 0 0 0 0 0 0 0
60 55 48 45 43 41 38 35 33 31 26 20 17 16 15 13 7 2 1 0 0 2 4 3 1 0 0 0 0 0 0 1 2 1 1 0 0 0 0 0 0 0 0
52 48 43 41 40 37 33 28 25 22 19 16 15 15 15 12 6 2 0 0 0 0 1 1 0 0 0 0 0 0 0 0 0 0 0 0 0 0 0 0 0 0 0
42 39 35 32 31 30 26 20 16 12 9 9 10 11 12 9 4 1 0 0 0 0 0 1 1 1 0 0 0 0 0 0 0 0 0 0 0 0 0 0 0 0 0
31 29 25 21 20 21 20 16 11 6 3 2 3 5 5 4 2 1 0 0 0 0 0 1 2 2 1 0 0 0 0 0 0 0 0 0 0 0 0 0 0 0 0
21 18 15 13 12 13 14 13 10 5 2 1 0 1 1 1 0 0 0 0 0 0 0 0 1 2 1 0 0 0 0 0 0 0 0 0 0 0 0 0 0 0 0
13 11 9 8 9 9 9 9 8 5 3 2 1 0 0 0 0 0 0 0 0 0 0 0 0 1 1 0 0 0 0 0 0 0 0 0 0 0 0 0 0 0 0
8 7 6 6 7 7 6 6 6 5 4 3 1 0 0 0 0 0 0 0 0 0 0 0 0 0 0 0 0 0 0 0 0 0 0 0 0 0 0 0 0 0 0
6 6 4 4 5 5 4 4 4 3 3 3 1 0 0 0 0 0 0 0 0 0 0 0 0 0 0 0 0 0 0 0 0 0 0 0 0 0 0 0 0 0 0
6 4 2 2 3 4 3 3 2 2 3 3 2 1 0 0 0 0 0 0 0 0 0 0 0 0 0 0 0 0 0 0 0 0 0 0 0 0 0 0 0 0 0
4 3 2 1 2 3 2 1 1 1 2 2 2 1 0 0 0 0 0 0 0 0 0 0 0 0 0 0 0 0 0 0 0 0 0 0 0 0 0 0 0 0 0
4 3 2 2 2 1 1 0 0 0 1 1 1 0 0 0 0 0 0 0 0 0 0 0 0 0 0 0 0 0 0 0 0 0 0 0 0 0 0 0 0 0 0
5 4 3 3 1 0 0 0 0 0 0 0 0 0 0 0 0 0 0 0 0 0 0 0 0 0 0 0 0 0 0 0 0 0 0 0 0 0 0 0 0 0 0
4 4 5 4 2 0 0 0 0 0 0 0 0 0 0 0 0 0 0 0 0 0 0 0 0 0 0 0 0 0 0 0 0 0 0 0 0 0 0 0 0 0 0
3 4 6 6 4 1 0 0 0 0 0 0 0 0 0 0 0 0 0 0 0 0 0 0 0 0 0 0 0 0 0 0 0 0 0 0 0 0 0 0 0 0 0

GEFSGL_con_probscp_150.txt.gz
Probability
13 11 7 3 1 0 1 3 4 4 4 4 4 4 4 4 4 4 4 3 2 1 1 0 0 0 0 0 0 0 0 0 0 0 0 0 0 0 0 0 0 0 0
14 12 8 4 1 0 1 3 5 5 5 5 5 4 4 3 4 4 4 3 3 3 3 1 1 1 0 0 0 0 0 0 0 0 0 0 0 0 0 0 0 0 0
17 15 10 6 4 2 3 4 5 6 6 6 4 3 3 3 4 4 4 4 5 6 5 4 3 3 1 1 0 0 0 0 0 1 1 0 0 0 0 0 0 0 0
22 18 13 10 8 7 6 6 6 6 6 5 4 3 3 4 5 6 6 6 6 6 6 6 5 4 3 1 0 0 0 0 0 1 2 1 0 0 0 0 0 0 0
28 23 17 15 15 13 10 7 6 6 5 4 4 3 4 5 5 6 6 6 6 5 5 4 4 3 2 1 0 0 0 0 0 1 2 1 0 0 0 0 0 0 0
35 30 24 21 20 17 13 9 7 6 4 3 3 3 3 4 4 3 3 3 3 3 2 1 1 1 1 0 0 0 0 0 0 0 1 1 0 0 0 0 0 0 0
39 35 29 24 22 19 14 11 9 7 5 3 3 3 3 3 2 1 1 1 1 1 0 0 0 0 0 0 0 0 0 0 0 0 0 0 0 0 0 0 0 0 0
37 33 30 27 24 19 15 12 10 8 5 3 3 3 3 2 1 0 0 0 0 0 0 0 0 0 0 0 0 0 0 0 0 0 0 0 0 0 0 0 0 0 0
32 29 27 27 24 19 16 13 10 7 4 2 2 2 2 1 0 0 0 0 0 0 0 0 0 0 0 0 0 0 0 0 0 0 0 0 0 0 0 0 0 0 0
28 26 24 23 22 19 16 14 11 7 3 1 1 1 1 0 0 0 0 0 0 0 0 0 0 0 0 0 0 0 0 0 0 0 0 0 0 0 0 0 0 0 0
27 25 23 22 20 18 17 16 13 8 4 2 1 0 1 1 1 0 0 0 0 0 0 0 0 0 0 0 0 0 0 0 0 0 0 0 0 0 0 0 0 0 0
29 27 24 21 19 20 21 20 16 11 8 7 5 3 3 2 1 0 0 0 0 0 0 0 0 0 0 0 0 0 0 0 0 0 0 0 0 0 0 0 0 0 0
30 27 22 19 18 20 22 22 18 14 12 11 10 8 6 3 1 0 0 0 0 0 0 0 0 0 0 0 0 0 0 0 0 0 0 0 0 0 0 0 0 0 0
28 24 20 19 18 16 15 14 13 10 9 9 9 9 7 4 2 1 0 0 0 0 0 0 0 0 0 0 0 0 0 0 0 0 0 0 0 0 0 0 0 0 0
24 21 18 17 14 9 5 4 4 3 3 3 4 5 5 4 3 1 0 0 0 0 0 0 0 0 0 0 0 0 0 0 0 0 0 0 0 0 0 0 0 0 0
19 16 13 10 6 3 0 0 0 0 0 0 0 1 1 1 1 1 0 0 0 0 0 0 0 0 0 0 0 0 0 0 0 0 0 0 0 0 0 0 0 0 0
13 10 7 4 1 0 0 0 0 0 0 0 0 0 0 0 0 0 0 0 0 0 0 0 0 0 0 0 0 0 0 0 0 0 0 0 0 0 0 0 0 0 0
9 6 3 1 0 0 0 0 0 0 0 0 0 0 0 0 0 0 0 0 0 0 0 0 0 0 0 0 0 0 0 0 0 0 0 0 0 0 0 0 0 0 0
7 6 3 1 0 0 0 0 0 0 0 0 0 0 0 0 0 0 0 0 0 0 0 0 0 0 0 0 0 0 0 0 0 0 0 0 0 0 0 0 0 0 0
6 6 3 1 0 0 0 0 0 0 0 0 0 0 0 0 0 0 0 0 0 0 0 0 0 0 0 0 0 0 0 0 0 0 0 0 0 0 0 0 0 0 0
7 5 4 2 1 0 0 0 0 0 0 0 0 0 0 0 0 0 0 0 0 0 0 0 0 0 0 0 0 0 0 0 0 0 0 0 0 0 0 0 0 0 0
7 5 3 3 2 1 0 0 0 0 0 0 0 0 0 0 0 0 0 0 0 0 0 0 0 0 0 0 0 0 0 0 0 0 0 0 0 0 0 0 0 0 0
6 4 3 3 2 1 0 0 0 0 0 0 0 0 0 0 0 0 0 0 0 0 0 0 0 0 0 0 0 0 0 0 0 0 0 0 0 0 0 0 0 0 0
3 3 2 2 2 1 0 0 0 0 0 0 0 0 0 0 0 0 0 0 0 0 0 0 0 0 0 0 0 0 0 0 0 0 0 0 0 0 0 0 0 0 0
1 1 1 1 1 0 0 0 0 0 0 0 0 0 0 0 0 0 0 0 0 0 0 0 0 0 0 0 0 0 0 0 0 0 0 0 0 0 0 0 0 0 0
0 0 0 0 0 0 0 0 0 0 0 0 0 0 0 0 0 0 0 0 0 0 0 0 0 0 0 0 0 0 0 0 0 0 0 0 0 0 0 0 0 0 0

GEFSGL_con_probscp_156.txt.gz
Probability
15 15 13 10 8 6 5 4 3 2 1 1 3 5 3 1 0 0 0 0 0 1 2 2 3 2 2 3 3 1 0 0 0 0 0 1 1 0 0 0 0 0 0
14 14 12 10 9 8 6 4 3 3 1 2 4 5 3 1 0 0 0 0 0 0 1 1 2 1 2 3 3 2 1 1 0 0 0 1 2 1 0 0 0 0 0
14 13 11 9 10 9 8 6 4 3 2 2 4 5 3 1 0 0 0 0 0 0 0 0 0 0 1 3 3 3 2 1 0 0 0 1 1 1 0 0 0 0 0
16 14 11 9 9 10 9 7 6 4 4 3 3 3 2 1 0 0 0 0 0 0 0 0 0 0 0 1 2 2 2 1 0 0 0 0 0 0 0 0 0 0 0
16 14 11 10 10 11 11 10 9 7 6 5 4 2 1 1 0 0 0 1 1 1 1 1 0 0 0 0 1 1 1 0 1 1 0 0 0 0 0 0 0 0 0
17 14 13 13 14 13 12 12 13 11 8 6 5 3 2 2 1 0 0 1 2 2 2 2 1 0 0 0 0 0 0 0 1 1 0 0 0 0 0 0 0 0 0
18 16 15 17 16 15 13 13 14 12 9 6 5 3 3 2 1 0 0 1 2 3 3 2 1 0 0 0 0 0 0 0 1 1 0 0 0 0 0 0 0 0 0
18 17 15 15 14 12 11 12 12 11 8 6 4 3 3 2 1 0 0 0 1 1 2 1 0 0 0 0 0 0 0 0 0 0 0 0 0 0 0 0 0 0 0
17 17 15 13 11 10 10 10 10 9 7 6 4 2 1 1 0 0 0 0 0 0 0 0 0 0 0 0 0 0 0 0 0 0 0 0 0 0 0 0 0 0 0
17 16 16 14 12 12 11 9 8 7 6 5 3 1 0 0 0 0 0 0 0 1 1 0 0 0 0 0 0 0 0 0 0 0 0 0 0 0 0 0 0 0 0
17 17 17 15 13 13 13 10 8 6 6 5 2 1 1 1 0 0 0 0 0 1 2 1 0 0 0 0 0 0 0 0 0 0 0 0 0 0 0 0 0 0 1
18 17 17 16 13 12 11 9 9 8 7 6 3 2 3 3 2 0 0 0 0 1 1 1 0 0 0 0 0 0 0 0 0 0 0 0 0 0 0 0 0 0 1
14 14 15 15 13 11 10 8 8 8 8 7 6 5 5 5 4 2 0 0 0 0 0 0 0 0 0 0 0 0 0 0 0 0 0 0 0 0 0 0 0 0 1
10 10 12 13 12 10 9 8 7 6 6 7 7 6 6 5 4 2 0 0 0 0 0 0 0 0 0 0 0 0 0 0 0 0 0 0 0 0 0 0 0 0 0
10 10 10 10 10 8 7 6 4 3 3 3 3 4 3 2 1 1 0 0 0 0 0 0 0 0 0 0 0 0 0 0 0 0 0 0 0 0 0 0 0 0 0
10 8 6 8 8 6 4 2 1 1 1 1 0 1 1 1 0 0 0 0 0 0 0 0 0 0 0 0 0 0 0 0 0 0 0 0 0 0 0 0 0 0 0
8 5 4 5 6 4 2 1 0 0 0 0 0 0 0 0 0 0 0 0 0 0 0 0 0 0 0 0 0 0 0 0 0 0 0 0 0 0 0 0 0 0 0
6 4 3 3 3 2 1 0 0 0 0 0 0 0 0 0 0 0 0 0 0 0 0 0 0 0 0 0 0 0 0 0 0 0 0 0 0 0 0 0 0 0 0
5 3 2 2 2 2 1 0 0 0 0 0 0 0 0 0 0 0 0 0 0 0 0 0 0 0 0 0 0 0 0 0 0 0 0 0 0 0 0 0 0 0 0
5 4 3 3 3 3 2 1 0 0 0 0 0 0 0 0 0 0 0 0 0 0 0 0 0 0 0 0 0 0 0 0 0 0 0 0 0 0 0 0 0 0 0
5 5 4 3 3 3 2 1 0 0 0 0 0 0 0 0 0 0 0 0 0 0 0 0 0 0 0 0 0 0 0 0 0 0 0 0 0 0 0 0 0 0 0
4 4 4 3 2 2 2 1 0 0 0 0 0 0 0 0 0 0 0 0 0 0 0 0 0 0 0 0 0 0 0 0 0 0 0 0 0 0 0 0 0 0 0
2 2 2 1 1 1 1 0 0 0 0 0 0 0 0 0 0 0 0 0 0 0 0 0 0 0 0 0 0 0 0 0 0 0 0 0 0 0 0 0 0 0 0
1 1 0 0 0 0 0 0 0 0 0 0 0 0 0 0 0 0 0 0 0 0 0 0 0 0 0 0 0 0 0 0 0 0 0 0 0 0 0 0 0 0 0
0 0 0 0 0 0 0 0 0 0 0 0 0 0 0 0 0 0 0 0 0 0 0 0 0 0 0 0 0 0 0 0 0 0 0 0 0 0 0 0 0 0 0
0 0 0 0 0 0 0 0 0 0 0 0 0 0 0 0 0 0 0 0 0 0 0 0 0 0 0 0 0 0 0 0 0 0 0 0 0 0 0 0 0 0 0

GEFSGL_con_probscp_162.txt.gz
Probability
33 33 30 25 19 15 15 16 16 14 13 12 10 8 8 7 9 12 11 7 4 2 4 7 11 13 14 16 19 17 13 9 8 7 5 6 9 9 7 6 6 7 8
33 32 30 25 20 16 15 16 15 14 13 12 12 11 11 10 11 12 11 8 5 3 4 8 10 11 13 16 17 16 12 10 9 6 4 6 8 10 9 7 5 6 7
33 32 29 25 21 17 15 15 15 15 14 14 15 15 15 13 12 11 10 9 7 6 6 9 10 11 12 14 14 13 11 10 9 6 3 5 9 11 11 8 6 7 7
36 35 32 27 22 19 18 18 18 18 17 18 19 18 17 14 11 10 10 10 9 8 8 9 9 9 11 11 10 11 11 9 7 6 4 6 9 11 11 9 9 8 8
44 42 37 32 28 26 25 25 25 23 21 21 20 19 17 13 9 10 11 10 11 10 9 8 7 7 7 6 5 8 9 8 6 6 6 6 8 11 10 10 9 7 6
50 48 43 38 36 34 31 30 31 28 25 24 21 19 17 12 7 7 8 10 12 11 9 8 6 4 4 3 3 4 5 5 5 5 5 4 6 9 10 10 9 8 6
52 50 47 45 43 40 35 34 35 33 30 27 24 21 18 12 5 2 4 7 10 9 8 8 6 4 4 4 2 2 3 2 2 3 3 2 4 8 10 11 11 11 9
52 50 49 49 49 47 43 40 38 35 32 30 26 23 20 14 6 1 2 6 8 7 6 6 5 3 3 4 4 4 5 3 1 2 3 2 3 6 8 9 11 9 7
54 52 50 51 51 52 50 45 38 33 30 27 25 24 21 16 7 1 2 6 8 6 4 3 3 2 2 2 4 7 8 5 2 1 1 1 1 2 3 6 8 6 4
56 55 52 51 49 49 50 46 37 30 26 25 26 24 20 14 7 2 1 4 7 6 4 3 2 1 1 1 4 7 8 7 5 3 2 2 2 2 1 2 5 6 5
57 57 55 51 47 44 45 44 38 30 27 27 26 22 17 13 7 2 1 3 5 6 6 5 4 2 1 0 2 4 5 5 6 6 5 6 7 6 3 2 4 5 6
57 57 56 52 47 43 43 42 38 33 29 26 23 18 14 12 8 3 1 1 3 6 7 7 6 3 1 0 0 1 2 3 5 7 7 8 9 8 6 4 3 3 5
56 56 54 51 47 45 43 42 38 33 28 23 18 15 13 11 8 4 1 0 1 4 6 6 4 2 0 0 0 0 0 2 4 5 6 6 6 6 5 4 3 3 4
55 53 50 47 44 43 40 37 33 27 24 20 15 13 12 10 8 5 3 2 2 3 3 3 1 0 0 0 0 0 0 1 2 3 3 2 2 2 2 2 2 3 3
51 49 45 42 39 35 30 25 20 17 15 13 10 9 9 7 5 4 4 4 3 2 3 2 1 0 0 0 0 0 0 0 1 1 1 0 0 0 0 0 1 1 1
45 42 38 36 32 27 23 16 9 6 5 4 3 4 5 3 1 1 2 2 2 1 2 2 1 0 0 0 0 0 0 0 0 0 0 0 0 0 0 0 0 0 0
35 33 29 27 24 22 20 14 7 3 1 0 0 1 1 1 0 0 0 0 0 0 0 0 0 0 0 0 0 0 0 0 0 0 0 0 0 0 0 0 0 0 0
28 26 24 22 20 21 19 15 10 7 5 2 1 0 0 0 0 0 0 0 0 0 0 0 0 0 0 0 0 0 0 0 0 0 0 0 0 0 0 0 0 0 0
22 21 20 18 17 16 15 12 10 8 7 4 2 1 0 0 0 0 0 0 0 0 0 0 0 0 0 0 0 0 0 0 0 0 0 0 0 0 0 0 0 0 0
15 13 12 12 10 9 9 8 7 6 5 4 3 1 0 0 0 0 0 0 0 0 0 0 0 0 0 0 0 0 0 0 0 0 0 0 0 0 0 0 0 0 0
7 6 6 6 5 5 5 4 4 4 3 3 2 1 0 0 0 0 0 0 0 0 0 0 0 0 0 0 0 0 0 0 0 0 0 0 0 0 0 0 0 0 0
4 4 4 4 4 5 4 4 3 3 3 2 2 1 0 0 0 0 0 0 0 0 0 0 0 0 0 0 0 0 0 0 0 0 0 0 0 0 0 0 0 0 0
3 3 4 4 4 4 4 3 2 2 1 1 1 0 0 0 0 0 0 0 0 0 0 0 0 0 0 0 0 0 0 0 0 0 0 0 0 0 0 0 0 0 0
1 2 3 3 2 2 2 1 1 1 0 0 0 0 0 0 0 0 0 0 0 0 0 0 0 0 0 0 0 0 0 0 0 0 0 0 0 0 0 0 0 0 0
0 1 1 1 0 1 1 0 0 0 0 0 0 0 0 0 0 0 0 0 0 0 0 0 0 0 0 0 0 0 0 0 0 0 0 0 0 0 0 0 0 0 0
0 0 0 0 0 0 0 0 0 0 0 0 0 0 0 0 0 0 0 0 0 0 0 0 0 0 0 0 0 0 0 0 0 0 0 0 0 0 0 0 0 0 0

GEFSGL_con_probscp_168.txt.gz
Probability
68 65 61 58 54 51 46 41 37 32 27 25 25 27 28 28 29 32 31 28 22 16 11 11 12 13 11 11 12 11 9 6 5 7 10 12 12 12 13 17 17 12 8
69 67 62 59 57 55 51 47 43 37 32 29 29 30 30 29 29 29 29 25 21 14 10 10 12 13 12 10 11 12 9 7 6 8 10 10 10 10 12 13 12 9 7
71 69 67 64 63 62 60 56 50 43 38 36 35 32 30 27 25 23 22 20 15 10 8 9 11 13 12 10 10 12 11 8 8 10 10 10 9 9 9 8 7 6 5
72 72 71 69 66 65 64 59 55 48 42 39 37 32 26 21 18 16 15 13 10 8 7 7 8 9 9 9 9 11 12 10 10 11 11 10 10 9 9 7 5 3 3
75 74 72 69 66 64 62 59 57 52 44 40 36 30 23 18 14 12 11 11 10 10 9 8 7 5 4 5 5 7 10 10 11 11 10 9 8 9 9 7 3 1 1
78 75 71 69 67 64 62 60 58 54 49 43 36 30 24 16 10 8 9 11 13 13 13 12 8 3 1 1 2 2 4 7 8 8 8 6 7 7 6 4 2 0 0
79 74 71 70 70 67 65 62 61 59 57 52 44 36 27 16 8 5 6 8 12 14 15 13 9 5 2 1 1 1 1 2 3 4 4 4 5 5 4 3 2 1 1
80 76 72 71 72 70 67 64 64 65 64 59 51 41 30 19 9 4 4 5 8 11 12 11 10 8 5 3 2 1 1 1 1 2 2 2 3 4 4 3 4 3 3
82 79 75 73 70 68 65 64 65 66 63 58 51 42 33 21 10 5 4 6 8 8 8 8 8 8 4 2 1 1 2 3 2 1 1 1 1 2 2 3 4 5 4
82 80 78 73 67 63 63 63 65 63 59 53 48 42 34 23 11 4 4 7 10 10 8 6 5 4 2 0 0 1 2 4 5 3 2 2 2 2 1 1 2 4 4
80 79 78 73 65 62 63 64 64 61 56 51 48 42 34 22 10 3 3 6 10 11 9 6 4 2 0 0 0 1 2 4 5 5 5 5 4 4 2 1 1 2 3
78 79 77 72 65 63 62 63 62 59 54 51 46 39 31 21 10 4 2 3 5 8 7 5 4 2 0 0 0 0 1 2 4 5 5 5 4 4 3 1 1 1 1
78 78 76 70 65 62 60 58 56 53 50 48 43 38 31 22 12 5 2 1 1 3 4 3 1 1 0 0 0 0 0 1 2 2 2 2 2 2 1 1 0 0 0
76 75 71 64 59 56 53 47 43 40 39 40 38 35 29 21 11 5 2 1 0 1 1 0 0 0 0 0 0 0 0 0 0 0 0 0 1 1 0 0 0 0 0
71 68 61 55 51 47 40 31 25 23 23 25 26 24 20 14 7 3 1 1 1 0 0 0 0 0 0 0 0 0 0 0 0 0 0 0 0 0 0 0 0 0 0
63 58 52 48 47 42 32 21 12 9 8 8 10 10 7 5 2 1 0 0 0 0 0 0 0 0 0 0 0 0 0 0 0 0 0 0 0 0 0 0 0 0 0
56 51 45 43 42 38 32 23 13 7 4 2 2 2 1 0 0 0 0 0 0 0 0 1 1 1 0 0 0 0 0 0 0 0 0 0 0 0 0 0 0 0 0
46 42 39 37 34 31 29 26 19 11 7 4 2 0 0 0 0 0 0 0 0 0 0 1 1 1 0 0 0 0 0 0 0 0 0 0 0 0 0 0 0 0 0
35 34 33 31 26 22 22 23 19 13 8 6 3 1 1 0 0 0 0 0 0 0 0 0 1 1 0 1 1 0 0 0 0 0 0 0 0 0 0 0 0 0 0
29 26 25 23 19 16 16 17 16 13 9 7 5 3 1 0 0 1 1 0 0 0 0 0 0 0 0 1 1 0 0 0 0 0 0 0 0 0 0 0 0 0 0
25 21 18 17 15 14 13 13 13 12 9 7 5 3 1 1 1 1 1 0 0 0 0 0 0 0 0 1 1 0 0 0 0 0 0 0 0 0 0 0 0 0 0
25 21 17 14 13 12 11 10 10 10 7 6 4 3 1 1 2 1 1 0 0 0 0 0 0 1 1 0 0 0 0 0 0 0 0 0 0 0 0 0 0 0 0
24 22 18 14 12 10 8 8 8 7 6 4 3 2 1 1 1 1 0 0 0 0 0 0 0 1 1 0 0 0 0 0 0 0 0 0 0 0 0 0 0 0 0
19 18 16 13 10 8 6 5 5 4 4 3 2 2 1 0 0 0 0 0 0 0 0 0 0 1 1 0 0 0 0 0 0 0 0 0 0 0 0 0 0 0 0
14 13 10 9 8 6 4 2 1 1 1 1 1 1 0 0 0 0 0 0 0 0 0 0 0 0 0 0 0 0 0 0 0 0 0 0 0 0 0 0 0 0 0
11 9 7 6 6 5 3 1 0 0 0 0 0 0 0 0 0 0 0 0 0 0 0 0 0 0 0 0 0 0 0 0 0 0 0 0 0 0 0 0 0 0 0

GEFSGL_con_probscp_174.txt.gz
Probability
41 39 32 22 15 10 6 4 4 5 5 4 4 5 7 9 10 9 6 5 5 5 4 2 1 0 0 0 0 0 0 0 0 0 0 0 0 0 0 0 0 0 0
47 43 34 24 19 14 9 5 4 5 5 5 5 6 8 10 10 8 6 6 6 6 5 4 2 1 0 0 0 0 0 0 0 0 0 0 0 0 0 0 0 0 0
50 45 36 28 25 22 15 10 7 8 7 8 7 8 9 10 9 7 6 6 6 6 6 5 4 2 1 0 0 0 0 0 0 0 0 0 0 0 0 0 0 0 0
51 47 40 34 29 26 22 16 13 13 13 11 9 9 10 10 8 7 6 6 6 6 6 6 5 4 1 0 0 0 1 1 1 0 0 0 0 0 0 0 0 0 0
53 50 45 40 33 29 26 22 18 18 16 13 10 10 11 10 7 6 6 6 6 6 6 6 5 4 2 0 0 0 1 1 1 0 0 0 0 0 0 0 0 0 0
55 52 49 46 41 34 30 26 23 20 16 12 10 11 12 9 6 4 4 4 4 4 4 4 4 3 1 0 0 0 0 0 0 0 0 0 0 0 0 0 0 0 0
58 56 53 52 47 39 34 31 27 21 16 12 12 13 12 8 4 3 2 3 3 3 3 4 4 3 1 1 1 0 0 0 0 0 0 0 0 0 0 0 0 0 0
62 59 57 55 50 43 39 36 30 23 17 14 14 14 12 8 4 2 1 2 3 3 3 3 3 3 2 2 2 1 0 0 0 0 0 0 0 0 0 0 0 0 0
66 62 58 55 52 47 43 38 31 25 20 17 15 14 12 9 5 2 0 2 3 3 3 3 2 2 2 2 1 1 1 0 0 0 0 0 0 0 0 0 0 0 0
68 64 59 54 51 47 42 36 30 26 24 20 17 15 13 10 6 2 0 2 3 3 3 3 1 1 1 0 0 0 0 0 0 0 0 0 0 0 0 0 0 0 0
65 63 59 55 50 45 38 32 28 26 25 21 18 15 12 7 3 1 0 1 2 3 3 3 2 1 0 0 0 0 0 0 0 0 0 0 0 0 0 0 0 0 0
56 57 56 52 47 39 32 27 25 25 24 20 17 14 10 4 1 0 0 1 1 1 2 2 2 1 0 0 0 0 0 0 0 0 0 0 0 0 0 0 0 0 0
45 46 45 43 39 32 27 24 24 25 25 22 17 13 9 4 1 0 0 0 0 0 1 1 1 0 0 0 0 0 0 0 0 0 0 0 0 0 0 0 0 0 0
39 37 34 32 29 26 23 22 23 25 25 22 17 13 9 6 3 1 0 0 0 0 0 0 0 0 0 0 0 0 0 0 0 0 0 0 0 0 0 0 0 0 0
38 35 30 25 24 22 19 17 17 18 18 16 13 10 8 6 5 2 0 0 0 0 0 0 0 0 0 0 0 0 0 0 0 0 0 0 0 0 0 0 0 0 0
37 33 29 24 21 18 14 11 9 8 8 7 6 5 4 3 3 1 0 0 0 0 0 0 0 0 0 0 0 0 0 0 0 0 0 0 0 0 0 0 0 0 0
29 28 27 25 21 16 12 8 5 3 2 1 1 1 0 1 1 0 0 0 0 0 0 0 0 0 0 0 0 0 0 0 0 0 0 0 0 0 0 0 0 0 0
22 23 24 25 21 16 12 9 5 2 1 0 0 0 0 0 0 0 0 0 0 0 0 0 0 0 0 0 0 0 0 0 0 0 0 0 0 0 0 0 0 0 0
21 21 21 21 20 16 13 9 5 3 2 1 0 0 0 0 0 0 0 0 0 0 0 0 0 0 0 0 0 0 0 0 0 0 0 0 0 0 0 0 0 0 0
22 20 20 20 19 16 12 8 5 3 3 1 0 0 0 0 0 0 0 0 0 0 0 0 0 0 0 0 0 0 0 0 0 0 0 0 0 0 0 0 0 0 0
20 19 19 19 17 14 11 7 4 3 3 2 1 0 0 0 0 0 0 0 0 0 0 0 0 0 0 0 0 0 0 0 0 0 0 0 0 0 0 0 0 0 0
15 13 13 14 13 10 8 6 4 3 3 3 2 1 0 0 0 0 0 0 0 0 0 0 0 0 0 0 0 0 0 0 0 0 0 0 0 0 0 0 0 0 0
7 6 6 7 7 6 6 5 4 3 3 3 2 1 0 0 0 0 0 0 0 0 0 0 0 0 0 0 0 0 0 0 0 0 0 0 0 0 0 0 0 0 0
1 1 1 2 3 4 4 3 3 2 2 2 2 1 0 0 0 0 0 0 0 0 0 0 0 0 0 0 0 0 0 0 0 0 0 0 0 0 0 0 0 0 0
0 0 0 1 2 3 3 1 1 1 1 1 1 0 0 0 0 0 0 0 0 0 0 0 0 0 0 0 0 0 0 0 0 0 0 0 0 0 0 0 0 0 0
0 0 0 0 1 3 2 1 0 0 0 0 0 0 0 0 0 0 0 0 0 0 0 0 0 0 0 0 0 0 0 0 0 0 0 0 0 0 0 0 0 0 0

GEFSGL_con_probscp_180.txt.gz
Probability
8 11 14 13 10 8 6 4 2 2 2 1 1 1 0 0 0 1 3 3 3 3 4 4 4 4 3 2 0 0 0 0 0 0 0 0 0 0 0 0 0 0 0
9 12 16 15 12 9 7 5 4 3 3 2 2 2 1 1 2 4 4 4 4 4 4 5 5 5 5 3 1 1 0 0 0 0 0 0 0 0 0 0 0 0 0
14 15 17 17 14 11 8 7 6 5 5 5 4 4 3 4 6 7 7 6 6 6 6 6 6 6 6 5 3 2 1 1 0 0 0 0 0 0 0 0 0 0 0
21 20 21 21 18 15 12 11 9 8 8 8 6 6 6 7 8 9 9 8 7 6 6 5 5 5 5 5 4 3 2 2 1 0 0 0 0 0 0 0 0 0 0
26 26 27 28 27 23 19 14 10 9 10 10 8 8 8 8 8 8 8 8 7 5 4 4 4 4 4 3 3 2 2 3 2 1 0 0 0 0 0 0 0 0 0
30 30 34 37 37 31 23 15 10 9 10 11 10 9 9 8 6 4 5 6 6 4 3 3 3 3 3 3 1 0 1 2 2 1 0 0 0 0 0 0 0 0 0
33 34 38 41 42 37 29 20 14 12 12 12 12 10 8 6 3 2 1 3 3 3 3 3 3 2 2 2 1 1 1 2 1 0 0 0 0 0 0 0 0 0 0
37 37 38 42 42 40 35 27 20 17 15 14 12 10 7 4 2 1 0 1 1 2 3 3 3 1 1 2 2 2 3 3 1 0 0 0 0 0 0 0 0 0 0
39 38 39 40 41 40 37 29 23 20 17 14 12 9 6 4 2 1 1 0 0 1 2 2 2 1 1 1 2 2 3 3 1 0 0 0 0 0 0 0 0 0 0
38 38 38 37 36 36 35 29 25 22 19 15 12 8 5 3 2 2 1 1 1 1 1 1 1 1 0 0 1 1 1 1 1 0 0 0 0 0 0 0 0 0 0
38 37 37 35 32 31 32 30 26 23 19 16 11 7 4 2 1 1 1 1 1 0 0 0 0 0 0 0 0 0 0 0 0 0 0 0 0 0 0 0 0 0 0
36 36 35 34 32 30 28 26 22 20 18 14 11 7 4 2 1 0 0 1 1 0 0 0 0 0 0 0 0 0 0 0 0 0 0 0 0 0 0 0 0 0 0
32 32 31 30 29 28 25 21 18 17 17 14 10 7 5 4 3 1 0 0 0 0 0 0 0 0 0 0 0 0 0 0 0 0 0 0 0 0 0 0 0 0 0
30 28 26 25 25 24 21 17 15 14 14 13 11 8 6 5 4 2 1 0 0 0 0 0 0 0 0 0 0 0 0 0 0 0 0 0 0 0 0 0 0 0 0
28 26 24 22 21 20 17 14 10 8 8 10 10 9 7 5 4 3 1 0 0 0 0 0 0 0 0 0 0 0 0 0 0 0 0 0 0 0 0 0 0 0 0
27 25 22 20 18 16 14 10 6 3 2 4 5 6 6 4 2 1 1 0 0 0 0 0 0 0 0 0 0 0 0 0 0 0 0 0 0 0 0 0 0 0 0
24 21 19 18 16 14 13 10 7 4 2 1 1 2 3 2 0 0 0 0 0 0 0 0 0 0 0 0 0 0 0 0 0 0 0 0 0 0 0 0 0 0 0
19 16 14 14 14 14 13 12 9 7 5 3 1 0 0 0 0 0 0 0 0 0 0 0 0 0 0 0 0 0 0 0 0 0 0 0 0 0 0 0 0 0 0
12 11 10 12 14 14 13 12 11 9 8 6 3 0 0 0 0 0 0 0 0 0 0 0 0 0 0 0 0 0 0 0 0 0 0 0 0 0 0 0 0 0 0
9 8 9 12 15 14 13 12 12 11 10 8 5 2 1 0 1 1 1 0 0 0 0 0 0 0 0 0 0 0 0 0 0 0 0 0 0 0 0 0 0 0 0
7 7 8 11 14 14 12 12 12 12 11 10 7 4 2 1 2 2 1 0 0 0 0 0 0 0 0 0 0 0 0 0 0 0 0 0 0 0 0 0 0 0 0
5 5 7 9 12 13 12 12 11 11 10 9 8 6 3 1 2 2 1 0 0 0 0 0 0 0 0 0 0 0 0 0 0 0 0 0 0 0 0 0 0 0 0
3 3 4 6 8 9 10 11 11 9 6 5 6 5 2 0 1 1 0 0 0 0 0 0 0 0 0 0 0 0 0 0 0 0 0 0 0 0 0 0 0 0 0
2 1 2 3 4 5 7 8 7 5 2 2 3 3 1 0 0 0 0 0 0 0 0 0 0 0 0 0 0 0 0 0 0 0 0 0 0 0 0 0 0 0 0
1 0 0 1 1 2 3 4 3 1 0 1 2 2 1 0 0 0 0 0 0 0 0 0 0 0 0 0 0 0 0 0 0 0 0 0 0 0 0 0 0 0 0
0 0 0 0 0 1 1 1 1 0 0 0 1 1 0 0 0 0 0 0 0 0 0 0 0 0 0 0 0 0 0 0 0 0 0 0 0 0 0 0 0 0 0

GEFSGL_con_probscp_186.txt.gz
Probability
34 34 33 31 32 35 37 36 34 29 26 24 19 16 13 9 7 9 11 13 14 14 14 13 11 12 14 13 11 10 10 10 8 6 6 8 13 13 10 7 6 8 8
33 33 33 35 38 39 38 38 37 34 32 29 24 19 15 12 11 12 13 14 15 15 14 13 11 12 13 12 9 9 9 9 7 6 5 7 10 12 12 9 7 6 7
33 32 34 39 41 40 38 38 39 39 38 36 32 27 22 18 16 15 15 15 15 14 13 12 12 12 12 10 8 7 7 6 6 5 4 5 7 10 12 9 7 8 7
35 34 36 39 40 38 38 38 39 40 40 40 38 34 29 24 19 16 15 15 14 12 12 12 12 12 11 9 7 6 6 6 6 6 6 6 8 10 11 9 8 10 10
40 40 40 40 41 41 41 42 42 42 42 43 41 37 32 24 15 12 13 14 15 14 13 12 12 10 8 7 5 5 5 6 8 10 10 11 11 12 12 9 8 10 10
48 47 45 45 47 48 48 48 48 47 46 45 41 36 28 18 10 7 9 13 16 15 13 12 10 8 6 4 3 2 2 4 8 11 12 12 12 12 12 10 9 9 9
55 54 53 53 56 57 55 54 54 53 50 45 40 34 25 13 6 3 5 11 15 14 12 10 9 7 6 5 4 2 2 4 6 9 11 11 11 11 11 10 9 7 6
59 59 59 59 60 61 60 59 58 56 52 45 38 32 23 12 5 2 4 10 14 13 11 10 10 9 8 7 6 5 6 6 6 6 7 7 7 8 8 8 7 5 4
60 61 61 61 60 59 60 60 58 55 51 44 37 31 23 15 7 2 4 10 14 14 13 11 9 8 6 4 5 7 8 7 5 3 3 3 3 3 3 4 4 4 3
60 61 61 61 57 54 54 55 54 51 48 43 37 33 28 20 10 3 4 12 16 16 15 12 7 4 2 1 3 5 6 5 2 0 0 0 0 0 0 1 2 2 1
59 59 59 57 53 49 49 51 50 47 44 41 37 34 30 23 12 3 4 11 16 16 15 12 7 2 0 0 1 3 3 3 2 1 1 1 1 0 0 1 2 2 1
55 56 55 53 50 47 46 48 48 44 40 38 34 31 28 22 12 4 2 6 10 13 13 10 6 2 0 0 0 1 1 1 1 1 2 2 1 0 0 0 1 2 2
52 52 51 48 46 45 45 45 44 41 38 35 32 28 25 21 14 8 3 2 4 8 9 7 4 1 0 0 0 0 0 0 1 2 2 2 1 0 0 0 1 2 2
50 49 45 41 38 38 39 39 39 37 35 34 32 28 25 22 18 12 7 4 3 4 6 5 2 1 0 1 1 1 0 0 1 2 1 1 1 0 0 0 0 1 1
47 44 39 34 32 30 29 30 32 30 27 27 28 26 24 21 16 10 8 6 4 3 5 5 4 2 2 4 4 3 1 0 1 1 0 0 0 0 0 0 0 0 0
41 38 34 32 31 27 22 20 21 19 15 14 17 18 17 14 8 4 4 4 3 2 4 6 6 5 5 6 6 4 2 1 1 1 0 0 0 0 0 0 0 0 0
35 33 32 32 32 28 21 16 16 14 9 6 6 6 6 4 2 0 0 1 0 1 4 6 6 6 6 6 6 5 2 1 2 1 0 0 0 0 0 0 0 0 0
29 29 30 31 31 28 21 16 16 15 12 9 5 3 1 0 0 0 0 1 1 3 5 7 7 6 6 7 8 6 4 3 2 1 0 0 0 0 0 0 0 0 0
24 23 25 26 27 24 19 16 16 16 16 15 11 7 2 1 0 0 1 2 4 5 7 9 9 8 8 8 7 6 4 2 1 0 0 0 0 0 0 0 0 0 0
18 17 18 20 21 20 18 17 17 17 15 15 14 11 6 3 2 2 2 3 6 7 8 9 9 9 8 7 4 3 2 1 0 0 0 0 0 0 0 0 0 0 0
15 15 15 17 17 17 17 17 17 16 14 13 14 11 7 5 6 6 4 4 6 7 8 9 9 7 5 3 2 0 0 0 0 0 0 0 0 0 0 0 0 0 0
15 16 16 15 13 13 14 15 14 12 11 11 13 11 8 8 10 9 7 6 6 6 7 8 8 6 3 1 1 0 0 0 0 0 0 0 0 0 0 0 0 0 0
16 16 15 12 10 10 11 12 12 10 9 9 11 12 11 11 11 10 8 6 6 5 4 5 6 5 2 0 0 0 0 0 0 0 0 0 0 0 0 0 0 0 0
14 13 12 10 9 9 9 10 10 9 7 8 9 11 12 11 10 9 7 5 4 3 2 1 2 1 1 0 0 0 0 0 0 0 0 0 0 0 0 0 0 0 0
11 11 10 10 9 9 8 8 8 8 7 7 8 8 9 8 7 6 4 3 2 1 0 0 0 0 0 0 0 0 0 0 0 0 0 0 0 0 0 0 0 0 0
10 10 10 11 9 8 7 7 6 7 8 8 7 7 6 4 3 3 2 1 1 0 0 0 0 0 0 0 0 0 0 0 0 0 0 0 0 0 0 0 0 0 0

GEFSGL_con_probscp_192.txt.gz
Probability
59 54 48 44 41 39 40 42 42 43 46 47 43 40 39 39 35 29 25 24 23 22 20 18 17 16 13 10 9 11 12 11 8 6 4 4 6 5 4 6 6 6 5
60 57 52 48 46 44 46 48 48 47 46 44 42 41 41 41 39 34 28 25 25 24 21 19 17 16 15 14 13 13 13 11 9 7 5 6 7 6 5 6 6 4 4
62 61 58 54 53 53 53 53 53 50 45 43 43 43 43 45 44 39 34 31 29 27 24 22 19 17 16 16 16 16 14 12 10 8 7 7 7 6 5 5 4 3 2
65 66 64 60 59 59 58 57 55 51 47 46 47 46 46 48 45 41 37 34 32 29 25 22 19 15 13 14 14 14 14 13 12 11 9 9 8 6 5 4 3 2 2
70 70 69 65 64 65 65 64 60 55 54 54 54 51 49 46 41 36 36 36 35 30 26 22 16 10 9 8 8 9 10 11 12 13 12 11 9 7 7 5 3 3 3
73 72 71 70 70 71 71 70 68 65 63 61 58 54 48 40 31 28 31 36 35 30 26 22 14 8 6 6 5 4 5 6 8 11 11 10 9 9 8 7 5 4 4
74 73 72 72 72 72 72 73 73 71 66 60 56 53 46 34 24 19 23 31 31 27 24 21 15 10 8 8 7 5 4 3 5 7 8 8 8 9 9 7 6 5 5
72 72 72 72 72 73 72 71 72 69 62 56 53 52 44 30 18 13 16 23 26 23 22 20 17 13 10 9 9 9 7 5 4 4 4 4 5 7 7 6 6 6 5
68 68 69 70 72 73 70 68 68 65 59 54 51 50 44 30 16 9 12 20 23 22 20 19 16 13 9 7 8 10 10 8 4 2 1 1 2 2 2 3 4 5 5
64 64 66 69 71 71 69 67 66 62 56 51 48 48 44 32 17 9 10 18 22 22 20 17 14 9 5 3 4 7 9 8 5 2 1 0 0 0 0 0 2 4 5
61 60 63 66 66 66 67 68 66 61 55 49 45 44 43 32 18 9 8 13 19 20 19 17 11 5 2 1 2 3 5 5 6 5 3 1 1 1 1 0 1 5 7
59 58 57 59 58 59 61 62 62 57 51 45 42 41 39 32 21 10 5 6 11 15 17 15 9 3 0 0 0 1 1 2 5 5 4 3 3 4 3 1 1 3 5
59 56 53 51 51 52 54 55 52 48 44 41 39 38 37 34 26 14 5 2 3 9 12 10 5 1 0 0 0 0 0 1 4 4 4 4 5 5 4 1 0 0 1
56 53 48 45 45 48 49 46 41 36 37 37 37 36 35 33 28 18 9 5 4 5 6 5 3 1 0 1 1 1 0 1 2 3 4 5 6 5 4 2 1 0 0
52 49 45 42 42 44 42 36 30 27 28 30 32 32 30 26 22 16 12 10 8 6 4 4 5 4 3 4 5 4 2 2 3 4 5 6 6 5 4 3 2 1 0
48 46 41 40 41 40 36 29 23 20 18 17 20 21 19 15 11 9 8 8 7 5 5 7 9 8 7 9 9 8 6 5 5 6 6 7 6 5 3 3 3 2 1
44 40 36 36 38 37 32 26 21 18 13 10 8 9 8 5 3 3 2 2 2 3 6 11 13 12 10 10 11 11 11 9 8 7 7 7 6 4 3 2 2 2 1
36 32 30 32 34 33 29 25 23 20 17 13 8 4 2 0 0 0 0 0 1 3 7 12 14 14 12 11 10 12 13 12 11 9 6 5 5 3 1 1 1 1 0
28 26 26 27 28 27 24 22 22 21 20 18 13 8 2 0 0 0 0 1 2 4 8 11 13 14 13 10 9 10 12 12 12 9 6 3 2 2 1 0 0 0 0
23 22 22 22 22 23 22 21 21 20 20 19 15 10 4 2 3 3 2 2 3 6 9 11 12 12 11 9 9 9 9 10 10 9 6 2 0 1 1 1 0 0 0
19 18 17 17 19 22 23 23 23 21 21 20 15 9 5 4 5 6 5 4 5 7 10 11 11 10 9 8 8 7 7 7 7 7 5 3 1 0 1 1 0 0 0
16 15 13 14 18 21 22 23 23 22 20 18 13 7 4 4 5 6 7 7 8 9 9 9 9 8 8 8 7 7 5 5 4 3 2 2 1 0 0 0 0 0 0
12 12 12 14 16 17 18 19 20 19 17 13 9 6 5 4 4 5 7 8 9 9 9 8 7 7 8 8 7 7 6 5 3 2 1 1 0 0 0 0 0 0 0
8 8 10 12 14 15 16 17 18 16 13 10 8 6 6 6 6 7 8 8 8 9 9 8 7 6 6 6 6 6 6 5 3 1 1 0 0 0 0 0 0 0 0
6 7 9 12 14 16 17 18 18 15 11 8 7 6 6 6 7 8 9 8 7 7 7 7 6 5 4 4 4 5 5 3 2 1 0 0 0 0 0 0 0 0 0
6 7 9 12 15 16 17 19 19 15 11 8 7 6 6 6 7 9 9 7 5 5 5 5 4 4 4 3 4 4 2 1 0 0 0 0 0 0 0 0 0 0 0

GEFSGL_con_probscp_198.txt.gz
Probability
29 26 22 18 14 11 11 13 15 17 21 24 24 19 16 15 16 15 12 9 7 7 6 5 3 3 3 2 2 2 2 2 1 0 0 0 0 0 0 0 0 0 0
31 29 25 21 17 14 13 13 16 19 22 24 24 21 18 17 19 18 15 11 9 8 6 5 4 3 3 2 1 1 1 1 1 0 0 0 0 0 0 0 0 0 0
34 32 29 27 25 22 20 17 17 19 20 22 23 22 22 22 22 21 18 14 11 10 8 7 6 5 4 2 1 1 1 1 1 0 0 0 0 0 1 1 0 0 0
34 33 32 30 28 27 25 21 18 17 17 19 22 23 24 25 23 20 19 17 15 13 11 11 9 7 5 3 3 2 2 2 2 1 1 1 0 1 2 2 1 1 0
37 35 34 32 31 30 28 24 20 17 17 18 21 22 23 23 20 18 18 20 18 15 13 12 11 8 6 4 3 3 3 4 3 3 2 2 1 1 2 3 3 2 1
42 40 38 38 38 37 35 30 25 21 21 21 21 21 21 20 17 15 16 18 18 16 13 11 10 9 7 5 4 3 3 3 3 3 3 3 3 2 2 2 3 3 3
43 43 44 44 44 43 42 37 30 27 27 27 26 25 22 19 16 13 13 14 15 14 11 9 8 8 7 6 4 3 2 2 3 3 3 3 3 2 1 1 3 3 3
38 40 43 46 46 45 43 39 34 32 32 31 30 28 24 18 14 10 10 12 12 10 9 8 6 4 5 5 4 3 3 3 3 3 2 2 2 1 0 1 2 2 2
33 34 38 43 45 44 43 41 39 36 33 31 31 30 26 20 13 8 9 11 11 9 7 6 4 2 2 3 3 3 3 3 2 1 1 1 1 0 0 0 1 1 1
29 30 33 36 38 40 41 42 43 40 35 30 31 32 29 22 14 7 7 10 11 10 8 7 5 2 1 1 1 2 2 2 1 0 0 0 0 0 0 0 0 0 0
26 27 28 29 31 33 35 39 42 41 35 31 30 30 28 23 14 6 4 7 10 9 8 8 6 2 1 0 0 1 1 1 0 0 0 0 0 0 0 0 0 0 0
22 23 23 25 26 27 30 34 39 38 35 32 30 27 25 23 15 5 2 4 7 7 6 7 5 2 0 0 0 0 0 0 0 0 0 0 0 0 0 0 0 0 0
18 19 21 23 23 23 27 32 35 35 33 32 30 27 24 22 16 7 2 1 3 4 4 5 4 1 0 0 0 0 0 0 0 0 0 0 0 0 0 0 0 0 0
17 18 21 22 21 21 24 28 30 31 30 29 28 25 23 22 20 14 8 3 2 2 3 3 2 0 0 0 0 0 1 2 1 1 0 0 0 0 0 0 0 0 0
19 19 20 20 19 19 19 21 23 24 23 22 21 20 21 22 20 18 12 7 4 3 3 2 1 1 1 1 2 2 2 3 3 2 1 1 0 0 0 0 0 0 0
18 18 17 17 17 17 16 15 16 15 13 12 12 14 16 16 14 12 8 6 5 4 3 4 4 4 4 4 4 3 3 3 3 3 3 2 1 1 1 0 0 0 0
17 16 14 13 14 15 14 14 13 10 7 6 6 7 8 8 6 3 2 1 2 1 2 5 7 8 8 9 8 5 4 3 3 3 2 2 2 3 2 1 0 0 0
16 14 11 9 10 13 14 15 12 9 6 6 4 3 3 2 1 0 0 0 0 0 1 5 7 9 10 11 11 8 5 3 2 1 1 1 2 4 4 3 2 0 0
14 12 8 7 8 11 14 14 12 9 8 8 5 3 1 0 0 0 0 1 1 1 1 3 5 7 8 9 10 9 6 3 2 0 0 0 1 3 5 5 3 1 0
10 8 5 5 6 9 12 12 10 8 8 7 6 4 2 1 1 1 0 1 2 2 1 2 4 6 7 8 9 9 7 5 3 1 1 1 2 3 4 4 3 1 0
6 4 3 3 5 7 9 10 7 5 5 5 4 3 3 3 3 3 2 2 2 1 2 3 4 5 6 8 8 8 7 6 5 4 3 4 5 4 4 3 2 1 0
4 3 3 3 3 4 6 6 4 2 3 3 3 3 4 4 5 4 3 3 2 1 2 2 3 3 4 6 7 6 5 5 5 5 4 4 4 4 3 3 2 1 0
3 3 3 3 3 2 3 4 2 2 3 4 3 3 3 4 4 4 3 3 3 3 2 2 1 1 1 3 4 3 3 4 4 4 3 2 2 2 3 3 2 1 0
3 3 3 3 3 2 2 3 3 3 4 5 4 3 3 3 3 3 3 3 4 4 3 3 2 1 0 1 1 2 3 3 3 3 2 1 0 1 3 3 2 1 0
3 3 3 3 3 2 2 2 3 3 4 5 5 4 3 3 3 3 3 4 5 5 4 3 2 1 0 0 0 1 1 2 1 1 1 1 0 1 2 3 2 1 0
2 3 3 3 3 2 1 1 3 3 4 5 5 4 3 3 3 3 3 4 6 6 5 3 2 1 0 0 0 0 0 1 0 0 1 0 0 1 2 3 1 0 0

GEFSGL_con_probscp_204.txt.gz
Probability
19 17 14 10 6 3 1 2 2 2 4 6 8 9 9 8 8 9 9 11 11 9 7 5 4 4 4 3 2 2 2 1 1 1 0 0 0 0 0 0 0 0 0
20 19 16 12 9 6 4 4 4 4 6 8 9 10 10 10 9 8 9 12 13 12 8 6 6 5 5 5 5 5 5 3 3 3 1 1 0 0 0 0 0 0 0
24 23 20 16 13 10 8 8 8 9 11 12 11 11 12 11 10 10 11 13 15 14 10 7 7 7 7 7 8 8 7 6 5 4 3 2 1 0 0 0 0 0 0
29 27 22 18 15 14 13 12 13 15 16 16 15 14 14 13 13 12 12 13 14 12 9 8 9 9 9 9 9 9 8 7 6 4 3 3 2 1 0 0 0 0 0
31 29 24 18 15 16 17 18 18 17 17 17 17 16 16 15 14 12 12 12 11 10 9 10 11 12 11 10 10 9 8 8 6 5 4 4 4 3 2 2 1 1 0
29 28 25 19 17 18 19 20 20 18 17 17 17 17 17 16 13 10 9 11 11 11 10 11 12 13 12 11 9 8 7 7 7 7 6 6 6 5 4 3 3 2 1
25 24 23 20 17 18 20 20 20 20 19 20 19 19 18 16 12 6 6 9 12 11 11 11 12 12 12 11 9 7 5 4 5 6 6 6 6 6 6 4 3 2 2
22 21 21 20 19 18 18 17 19 20 21 22 22 21 20 16 10 4 4 9 11 10 9 10 10 10 9 9 7 5 3 2 2 3 4 5 5 5 4 3 2 1 1
21 21 22 23 23 20 17 17 19 19 20 20 21 23 22 17 10 4 4 9 10 9 7 7 7 6 5 4 4 3 2 1 1 1 1 2 2 2 1 1 1 0 0
23 23 25 26 25 22 20 20 20 20 19 17 17 20 19 16 10 4 4 10 12 10 6 3 3 3 1 1 2 2 1 2 2 1 0 0 0 0 0 0 0 0 0
23 24 25 24 21 19 20 21 21 20 18 15 14 15 14 11 8 3 3 10 15 15 10 5 2 1 0 0 1 1 2 2 3 2 0 0 0 0 0 0 0 0 0
20 21 21 19 16 15 16 18 19 19 18 16 14 12 11 9 7 4 2 5 12 16 16 11 4 1 0 0 0 1 1 1 2 1 0 0 0 1 1 1 0 0 0
14 14 14 14 14 13 14 14 16 18 17 16 15 14 13 11 8 5 2 2 5 11 14 11 4 1 0 0 0 0 0 0 0 0 1 1 1 1 2 1 0 0 0
10 9 9 10 11 12 12 12 14 16 17 16 16 16 15 12 10 8 7 4 3 5 8 7 3 1 0 0 0 0 0 0 0 1 2 2 1 1 1 1 0 0 0
7 6 6 7 8 9 9 8 10 13 14 15 16 17 15 11 9 9 10 9 5 4 4 4 3 3 2 2 2 2 0 0 0 1 2 2 0 0 0 0 0 0 0
5 5 5 6 6 6 5 5 5 8 10 11 11 13 12 10 8 7 7 7 5 3 2 2 3 5 5 6 6 5 3 2 1 2 3 2 1 0 1 1 1 0 0
6 5 5 4 4 4 4 4 3 4 6 6 5 5 6 7 5 3 2 2 1 1 1 2 4 6 8 9 10 9 8 6 4 4 5 4 3 1 1 1 1 0 0
6 6 5 4 4 4 4 4 4 4 5 5 3 1 2 3 2 1 0 0 0 0 1 3 5 7 9 11 12 13 12 11 9 7 6 6 5 4 2 2 2 1 0
6 7 7 6 4 4 4 4 3 4 5 5 4 2 1 1 1 1 1 1 2 2 2 3 5 5 7 10 12 13 13 12 11 9 7 7 7 6 4 2 2 1 1
6 7 7 6 4 4 3 3 3 3 4 5 4 2 2 2 2 2 2 3 4 4 3 3 3 3 4 6 9 11 11 11 11 10 9 8 7 7 6 5 5 4 4
5 6 6 5 4 3 3 3 3 3 3 3 2 1 1 2 2 2 2 3 4 3 2 2 1 1 2 4 6 7 8 9 10 11 11 10 8 8 8 8 8 8 7
4 5 4 3 2 2 2 2 2 2 1 1 1 0 0 1 1 1 0 1 1 2 2 2 1 1 2 3 4 4 5 6 8 10 11 10 8 7 6 7 8 8 9
3 3 2 1 1 1 2 2 1 1 0 0 0 0 0 0 0 0 0 1 1 2 3 2 1 2 3 3 3 3 3 4 5 7 9 8 7 5 4 4 4 5 5
1 1 1 0 1 2 2 2 2 1 0 0 0 0 0 0 0 0 0 1 2 2 2 2 3 3 3 2 3 3 3 2 3 4 4 5 4 4 3 3 2 1 1
0 0 0 1 2 3 3 3 3 2 0 0 0 0 0 0 0 0 0 1 1 1 1 3 3 3 3 3 3 2 1 1 1 1 1 1 2 2 2 2 1 0 1
0 0 0 1 2 3 3 3 3 1 0 0 0 0 0 0 0 0 0 0 0 0 1 2 3 3 3 3 3 1 0 0 0 0 0 0 0 0 1 1 1 1 1

GEFSGL_con_probscp_210.txt.gz
Probability
40 37 34 30 26 23 22 21 20 18 17 17 16 14 12 11 12 13 14 15 16 20 24 25 23 22 23 22 19 17 16 16 14 11 12 11 9 9 12 12 9 7 8
39 37 35 33 28 22 20 21 22 21 19 18 19 18 15 14 14 15 17 18 18 20 23 25 25 26 27 24 21 17 16 16 16 15 15 14 11 10 12 11 8 6 7
38 37 36 35 30 23 21 23 26 24 20 20 22 22 20 18 17 18 21 22 20 19 22 24 26 29 31 28 24 20 18 19 20 19 19 18 15 12 13 12 9 7 7
40 38 36 36 34 29 27 28 30 27 22 22 24 24 23 20 19 21 23 22 21 21 22 23 24 28 29 27 25 22 21 21 21 20 20 21 19 16 16 14 11 10 10
42 39 38 38 39 37 35 33 33 31 26 25 26 27 26 22 19 20 21 21 22 25 27 27 25 25 24 21 19 20 21 20 19 18 19 20 19 18 17 14 13 12 13
42 41 40 41 42 42 40 36 35 34 32 31 30 30 28 22 16 14 17 22 26 29 33 31 27 25 22 17 13 13 14 14 14 15 16 17 18 18 16 13 13 13 13
42 41 41 41 41 42 41 40 38 37 38 37 35 34 32 23 13 8 12 21 28 32 34 34 30 28 26 20 13 10 9 9 10 13 14 15 17 17 15 13 13 14 14
40 39 38 39 40 41 40 40 39 39 41 40 38 37 35 26 14 6 10 21 31 33 34 34 32 30 27 22 17 15 14 11 9 9 12 12 12 13 13 15 14 14 15
36 35 36 38 40 39 37 35 35 37 37 37 37 36 34 27 14 5 8 22 33 35 35 33 29 26 23 18 19 23 24 18 10 7 6 6 6 6 9 13 14 14 15
34 34 35 37 37 35 33 31 30 31 30 30 31 31 30 25 14 4 7 20 32 38 39 34 26 20 15 13 19 28 29 23 14 8 5 4 4 4 6 9 11 13 13
35 35 35 35 33 31 29 28 26 25 25 25 26 26 24 22 16 6 5 15 26 36 40 37 28 17 8 7 13 23 25 21 16 13 11 9 9 9 8 9 11 12 12
36 36 34 32 30 29 28 25 24 23 23 23 23 23 22 22 16 7 3 8 18 28 34 33 25 12 3 2 5 11 13 13 15 16 15 14 13 13 14 14 14 13 14
34 33 32 30 28 28 27 22 21 22 22 22 22 22 23 21 17 10 4 3 8 16 22 21 14 6 2 2 2 3 5 10 15 17 17 16 15 17 19 18 16 15 15
31 31 31 29 27 28 26 21 19 20 20 19 19 20 21 20 17 15 11 6 4 7 11 12 8 5 6 7 6 5 7 12 16 18 18 18 19 21 22 19 17 15 15
31 31 30 28 26 25 23 18 15 15 14 13 13 15 16 15 14 14 13 10 6 5 8 10 11 11 12 13 11 11 13 14 16 17 18 19 21 23 22 19 17 17 16
29 28 26 24 23 21 18 13 10 8 7 6 6 8 9 9 7 7 8 7 5 5 8 12 14 15 15 14 13 15 17 17 17 18 19 19 20 21 20 20 19 19 19
24 23 21 20 19 17 14 11 7 5 3 2 2 3 4 3 2 2 2 1 1 3 8 11 13 14 14 13 13 14 16 18 18 18 18 19 19 19 18 19 19 19 19
16 15 16 16 16 14 13 11 8 6 5 3 2 1 1 0 0 0 0 1 1 4 8 10 11 12 13 13 13 13 14 15 17 17 17 17 18 18 18 18 18 18 19
11 10 11 12 13 12 11 10 8 7 6 5 3 1 1 1 1 1 1 3 4 6 8 9 10 11 12 12 12 12 12 13 14 16 16 16 17 19 19 19 18 18 18
9 8 7 8 9 10 10 9 7 6 6 5 4 3 2 2 3 3 3 4 6 7 7 8 8 9 10 10 11 12 12 11 12 14 15 16 18 19 19 19 19 19 19
7 6 5 6 7 9 9 8 7 6 6 4 3 3 3 3 4 5 6 6 7 7 7 8 8 8 7 7 9 10 9 9 9 10 12 14 16 18 19 19 19 19 19
6 6 5 5 6 8 8 7 6 6 5 4 3 3 3 4 4 6 6 6 6 6 7 8 8 7 5 5 6 6 6 6 5 5 8 10 13 15 18 19 19 17 16
8 7 6 6 6 6 7 7 6 5 4 3 3 3 4 4 4 5 5 4 4 5 6 7 7 5 3 3 3 4 5 5 4 3 5 7 9 11 14 18 18 15 13
9 8 7 6 6 6 6 7 6 5 4 3 3 2 3 4 4 4 4 4 4 4 5 6 5 3 1 1 3 3 4 4 3 3 4 5 7 8 11 15 16 13 11
8 7 6 6 6 6 6 6 6 5 4 2 1 1 2 3 4 5 5 5 4 5 6 5 3 1 0 1 2 2 1 1 1 2 3 4 6 7 8 11 12 11 10
6 5 4 4 5 5 5 5 5 4 2 1 1 1 1 3 5 6 6 6 5 6 6 5 3 1 1 2 2 1 0 0 0 1 3 4 6 6 7 8 9 9 10

GEFSGL_con_probscp_216.txt.gz
Probability
65 64 60 60 56 45 39 38 39 39 38 37 34 31 30 28 26 25 24 22 20 20 20 21 24 25 27 28 26 25 25 22 16 13 15 19 22 20 18 17 15 12 9
66 65 62 60 56 50 46 48 48 47 46 43 38 34 29 27 28 28 27 25 23 22 21 22 24 26 27 27 28 28 27 23 19 18 19 20 21 21 19 18 16 13 11
64 64 64 62 59 56 54 55 56 54 52 48 45 39 31 27 27 29 29 27 24 23 23 23 24 26 27 27 28 30 28 23 22 22 22 23 22 20 19 18 17 15 13
63 63 63 60 57 57 57 56 55 53 51 49 47 43 35 28 27 29 29 27 25 24 24 25 26 26 27 26 27 29 28 25 24 24 23 23 23 20 18 18 17 16 14
63 63 60 54 51 53 55 53 51 50 49 49 48 45 38 30 25 27 30 29 29 29 28 27 28 26 24 24 25 27 28 28 27 24 20 20 21 21 20 19 18 16 14
60 59 57 52 50 50 50 49 48 49 51 51 49 46 41 32 24 21 26 31 33 34 34 31 28 25 23 23 22 22 23 24 24 22 19 18 19 20 21 20 19 16 14
55 55 54 53 52 49 45 44 46 48 51 52 50 49 45 37 25 18 20 28 32 35 37 35 30 26 27 27 24 20 18 17 17 18 20 21 22 20 20 20 18 16 16
51 51 52 51 51 49 44 42 44 47 49 49 49 49 47 40 28 17 16 24 31 36 38 38 36 32 29 30 28 25 21 16 12 12 16 20 21 19 18 17 15 14 15
45 47 48 48 48 49 46 43 42 43 45 45 46 46 45 38 26 14 13 22 32 37 40 40 38 33 26 24 27 29 29 23 15 10 10 11 13 13 14 15 14 12 11
42 43 45 46 47 48 46 42 39 39 40 40 39 38 37 33 24 12 11 22 32 36 40 39 33 25 17 15 20 27 29 27 21 15 10 9 10 10 12 15 15 12 9
41 42 43 43 43 43 43 39 37 36 35 34 33 32 31 29 22 10 8 18 27 32 35 34 25 15 8 6 11 18 22 23 24 22 18 16 16 15 15 16 16 12 9
40 41 42 41 38 38 39 37 36 35 31 30 30 28 27 26 20 10 5 10 18 24 28 26 19 9 3 1 4 8 11 16 23 26 24 21 19 19 19 20 18 13 9
39 41 42 40 38 38 36 32 31 31 28 26 26 25 24 23 20 14 7 5 8 14 18 16 10 5 2 1 2 4 6 12 21 26 26 22 21 21 22 23 22 17 12
39 40 40 38 39 39 34 26 24 25 25 23 22 22 22 21 20 17 12 8 8 9 10 9 6 3 2 4 6 6 8 13 19 25 26 24 24 23 23 23 23 20 16
38 37 34 31 32 33 28 20 18 18 17 16 15 16 18 17 15 13 13 13 11 9 8 9 8 6 5 8 11 12 13 15 18 23 25 25 25 25 23 21 21 21 20
37 34 29 26 25 24 19 14 11 10 8 7 7 9 11 10 8 7 9 10 9 8 8 9 9 9 9 9 12 14 14 14 17 21 24 25 24 24 24 22 21 21 21
33 30 27 25 23 19 16 13 10 7 4 4 3 4 4 3 2 2 3 3 3 4 7 8 8 10 11 11 12 13 13 14 16 19 22 23 23 23 22 21 20 19 19
26 25 25 25 23 20 18 15 12 9 8 7 4 2 1 0 0 0 0 1 2 4 7 8 8 9 11 13 13 13 14 13 14 17 19 20 21 21 20 18 17 16 15
20 20 22 21 20 19 17 13 12 11 11 10 7 4 1 0 0 0 1 3 4 6 8 8 7 7 9 12 13 13 14 14 14 15 16 16 17 17 16 16 16 15 14
17 17 16 14 13 13 12 11 11 11 11 11 9 6 3 2 2 3 4 5 6 6 8 8 7 7 8 10 12 13 13 14 14 14 14 13 13 13 13 13 14 13 12
15 14 11 10 9 8 8 9 10 11 10 9 7 5 4 4 5 7 8 7 7 7 7 7 7 6 7 9 10 11 11 12 13 13 12 12 11 11 11 10 9 10 10
14 12 10 9 9 8 7 8 9 9 8 6 5 3 3 4 6 8 9 9 9 8 8 7 6 6 8 9 10 10 10 10 10 11 10 9 8 8 7 5 5 6 7
13 12 10 9 9 9 8 8 8 7 5 4 4 3 3 4 5 6 7 9 10 10 8 7 6 6 7 9 9 9 9 9 9 9 8 7 6 5 3 2 2 4 5
12 11 10 9 10 10 10 9 7 5 4 3 3 4 4 5 5 4 5 8 10 9 8 7 6 6 6 7 7 7 7 7 6 7 7 6 5 4 3 1 1 1 2
11 10 9 9 9 9 10 8 5 4 3 3 3 4 5 4 4 4 4 5 7 7 6 5 4 4 4 4 5 5 5 4 3 4 5 6 6 5 4 1 0 0 1
11 9 9 8 7 8 8 6 4 3 3 3 3 4 5 4 3 3 3 3 4 4 4 4 4 3 3 4 4 4 2 1 1 2 4 6 6 6 4 1 0 0 0

GEFSGL_con_probscp_222.txt.gz
Probability
40 36 30 26 23 21 22 21 19 18 17 16 14 12 10 7 7 7 8 10 11 10 9 8 8 10 11 10 9 9 9 8 4 2 0 0 0 0 0 0 1 1 2
48 43 37 33 29 27 25 21 17 16 16 16 15 13 11 10 10 9 9 11 10 8 8 8 8 9 10 10 10 10 10 9 6 3 1 1 0 1 1 1 2 3 3
53 48 42 40 39 36 31 24 19 17 16 18 19 17 15 15 15 12 11 11 10 8 8 8 8 9 9 8 8 9 9 9 8 6 4 3 2 2 2 2 3 3 3
51 48 44 43 43 41 36 30 25 21 20 21 21 20 19 20 20 17 14 13 11 9 8 8 8 8 7 6 6 6 7 7 8 7 6 5 3 3 3 3 3 3 2
51 49 44 41 40 40 38 34 30 27 25 24 22 20 21 22 22 18 16 14 12 10 8 8 8 8 6 4 4 5 5 5 6 6 7 6 3 3 3 4 3 3 2
49 46 40 37 37 39 39 37 33 30 29 26 24 22 21 21 18 14 14 16 14 11 10 9 9 8 6 4 3 3 3 3 3 5 6 6 3 2 3 5 4 3 3
42 39 35 33 34 37 39 37 32 29 28 27 26 26 24 18 12 8 10 15 15 12 12 12 10 9 8 6 4 3 3 3 3 5 6 5 2 2 4 5 5 3 3
36 34 31 29 30 32 33 31 28 25 24 24 26 28 25 16 7 4 6 11 13 13 13 12 11 10 9 7 5 4 4 3 4 6 6 3 1 2 3 4 4 3 2
31 30 28 26 25 26 26 25 22 20 20 21 24 26 24 14 5 2 4 8 11 11 11 10 11 10 8 6 5 6 5 4 4 4 4 2 1 1 1 2 3 4 3
30 27 25 25 23 22 21 20 18 17 18 20 22 22 19 12 6 3 5 9 11 10 8 8 9 9 5 3 4 6 7 5 4 3 2 1 1 1 1 2 5 6 5
31 28 25 23 22 20 17 16 16 16 17 19 19 17 14 11 7 4 5 8 10 9 8 8 9 6 2 1 3 6 7 5 4 3 3 2 3 3 3 3 5 6 6
32 29 24 20 18 15 14 14 13 14 15 17 16 14 12 11 8 4 3 5 8 9 9 10 9 4 0 0 1 3 4 3 3 4 4 4 4 5 4 3 3 4 5
27 25 20 16 13 12 12 13 12 12 13 15 15 14 13 12 9 6 2 2 5 8 8 9 7 3 1 0 0 1 1 2 4 6 6 5 5 7 6 4 3 3 3
18 18 17 15 13 12 12 12 11 10 11 13 14 14 14 13 10 8 5 4 4 6 7 7 5 3 1 1 1 0 1 2 5 7 7 6 6 7 8 7 5 4 4
12 14 16 15 13 11 10 10 9 8 9 10 11 12 12 11 8 7 7 6 5 5 6 6 5 4 4 3 2 0 0 1 4 7 8 7 7 7 8 8 7 5 5
8 10 13 14 12 9 9 8 7 6 5 6 6 7 7 6 4 3 4 4 4 3 4 6 7 7 6 6 3 1 1 1 3 6 8 8 7 7 8 8 7 5 5
4 6 9 11 10 8 8 8 8 6 4 2 2 3 3 2 1 0 0 1 1 2 4 6 7 7 7 6 4 3 2 3 3 5 7 8 8 8 8 8 8 7 6
2 3 5 7 8 7 7 8 8 7 3 1 0 1 1 1 0 0 0 1 2 3 5 6 6 6 6 6 4 3 3 4 5 6 7 9 10 10 9 9 9 8 8
2 2 2 4 5 5 5 6 7 6 2 0 0 0 0 0 0 0 1 2 4 5 6 6 6 6 6 5 4 3 4 5 5 6 7 9 11 11 11 10 10 9 8
1 0 0 2 3 3 4 5 6 4 1 0 0 0 0 0 0 0 1 3 4 4 4 5 6 6 5 4 3 3 3 4 5 5 6 8 9 10 10 9 9 8 7
0 0 0 0 2 3 4 5 5 3 1 0 0 0 0 0 0 0 1 3 3 3 3 4 4 4 3 2 2 3 3 4 5 6 6 6 6 6 7 7 6 6 5
0 0 0 0 1 3 4 4 4 3 1 0 0 0 0 0 0 1 2 3 3 3 3 3 3 3 2 1 1 3 4 5 6 6 6 5 4 3 4 4 4 4 4
0 0 0 0 0 2 4 4 4 3 1 0 0 0 0 0 1 2 3 3 3 3 3 2 2 2 1 0 1 4 6 6 6 6 5 2 1 2 2 2 2 2 3
0 0 0 0 0 1 3 4 4 4 2 0 0 0 0 1 2 3 3 3 2 2 1 1 1 1 0 0 2 5 6 6 5 5 3 1 1 1 1 1 1 1 2
0 0 0 0 1 2 3 3 4 4 2 1 1 1 1 1 2 3 2 1 1 1 0 0 0 1 1 2 4 5 5 4 3 3 2 1 1 1 0 0 0 1 1
0 0 0 0 1 2 3 3 3 3 3 2 2 2 2 2 2 2 2 1 0 0 0 0 0 1 2 3 4 4 3 2 1 1 1 1 2 1 0 0 0 1 0

GEFSGL_con_probscp_228.txt.gz
Probability
30 27 22 21 22 24 23 21 18 15 12 12 13 14 14 14 15 14 14 15 14 11 10 8 6 5 6 8 9 9 8 7 7 8 7 5 6 6 5 4 2 1 1
30 28 26 24 23 23 22 21 20 17 13 11 12 13 14 16 17 17 15 15 15 15 13 12 9 8 8 8 9 9 9 9 8 7 6 5 6 6 6 5 4 4 4
30 28 27 26 24 21 21 21 20 18 15 11 10 11 13 16 17 18 18 17 17 18 18 16 14 12 11 9 10 11 11 11 11 8 6 6 7 7 7 7 8 8 7
27 25 24 25 23 20 18 18 17 16 14 12 11 11 12 13 14 16 18 19 19 19 19 17 15 13 12 11 12 12 12 13 13 12 8 7 8 8 9 10 10 9 7
27 26 26 26 24 19 15 15 14 14 15 16 16 16 15 13 12 13 16 19 20 19 18 17 14 12 11 11 12 13 13 14 15 14 10 7 7 7 8 9 10 8 5
30 30 30 30 27 21 18 18 19 19 21 22 21 20 18 15 11 10 13 17 19 19 18 17 15 13 11 10 9 9 10 11 12 12 9 7 6 6 6 6 7 6 5
30 29 29 29 28 25 23 24 24 24 26 25 24 22 20 15 9 7 9 13 17 17 17 17 16 14 12 11 9 7 7 6 6 8 7 5 4 5 4 4 4 5 5
25 24 24 26 26 26 27 26 24 24 25 26 24 22 19 13 7 4 6 9 13 15 16 17 17 15 12 11 11 10 8 6 4 4 5 4 3 3 3 3 3 2 3
25 23 22 23 24 25 26 25 23 23 24 24 23 21 19 15 8 4 4 7 12 14 15 16 15 13 9 8 11 14 13 10 5 3 2 2 1 1 1 1 1 1 2
25 24 23 23 24 25 25 23 22 22 22 21 21 21 19 16 10 4 4 8 13 15 16 15 11 8 6 7 11 15 16 13 8 5 3 2 1 1 0 1 1 1 1
22 23 23 23 24 24 23 21 20 20 18 17 17 18 17 14 9 3 2 8 13 15 15 13 8 4 3 5 8 11 12 11 10 8 7 5 4 3 2 2 3 3 3
19 21 22 22 21 20 19 18 17 16 15 14 14 14 14 11 7 2 1 4 9 12 12 10 6 2 1 2 4 5 6 7 9 11 11 10 7 5 5 5 4 4 3
17 19 21 21 17 14 14 14 13 13 12 12 12 12 11 10 7 3 1 1 3 7 8 6 3 1 0 0 2 3 4 7 10 13 15 14 11 9 8 7 6 3 2
16 17 19 18 15 11 10 10 10 9 9 9 9 9 9 9 8 6 3 2 2 4 5 4 1 0 0 1 3 4 6 8 12 15 17 17 16 13 10 8 7 5 3
13 14 14 14 12 10 8 7 7 7 6 6 6 6 6 7 7 6 4 3 3 3 2 3 2 2 1 3 5 6 7 9 12 15 16 17 17 14 11 9 7 5 4
10 10 10 11 11 10 9 7 5 4 4 3 2 3 3 4 4 3 2 1 1 1 2 3 3 4 4 4 6 6 7 8 10 12 14 15 14 12 10 9 8 5 4
7 7 7 8 9 9 9 8 5 3 1 1 0 1 1 1 1 1 0 0 0 1 2 3 3 4 4 5 6 6 6 6 7 9 10 10 9 9 9 9 8 6 5
5 4 3 4 5 6 7 7 6 3 1 0 0 0 0 0 0 0 0 0 0 1 3 4 3 3 3 4 6 6 6 6 6 7 6 6 6 7 7 8 8 6 5
2 2 1 1 1 3 4 5 6 5 3 1 0 0 0 0 0 0 0 0 0 1 3 4 3 3 2 3 5 6 6 6 6 6 6 5 5 5 6 7 7 6 4
1 1 0 0 0 1 3 4 6 6 5 3 1 0 0 0 0 0 0 0 0 1 2 3 2 1 1 2 4 6 6 6 6 6 6 5 4 4 5 6 7 6 5
0 0 0 0 0 1 2 3 5 6 6 4 2 1 0 0 0 0 0 0 0 0 1 1 1 0 1 3 5 6 6 6 6 6 6 4 4 4 5 6 6 6 5
0 0 0 0 0 0 1 1 3 4 6 5 4 1 0 0 0 0 0 0 0 0 0 0 0 0 1 3 5 6 6 6 6 6 6 4 4 5 6 6 6 5 4
0 0 0 0 0 0 0 0 1 3 5 6 4 2 1 0 0 0 0 0 0 0 0 0 0 0 1 3 4 4 5 6 6 6 5 4 4 6 7 7 5 4 3
0 0 0 0 0 0 0 0 0 2 4 5 4 3 1 0 0 0 0 0 0 0 0 0 0 1 2 3 3 3 4 4 4 5 4 4 4 5 6 5 4 3 3
0 0 0 0 0 0 0 0 0 0 2 4 3 2 1 0 0 0 0 0 0 0 0 0 0 1 3 3 3 3 3 2 3 3 3 4 5 4 4 4 3 3 3
0 0 0 0 0 0 0 0 0 0 1 3 3 1 0 0 0 0 0 0 0 0 0 0 1 2 3 3 3 3 2 1 1 1 2 4 5 4 3 3 3 3 3

GEFSGL_con_probscp_234.txt.gz
Probability
41 38 37 36 33 31 30 29 28 26 25 24 24 25 24 22 22 24 21 17 17 17 16 14 10 8 9 10 9 8 10 11 9 7 8 11 15 15 14 15 14 10 8
43 43 43 41 37 34 34 33 31 30 31 29 26 24 23 22 24 25 24 21 19 19 18 18 16 15 15 15 14 13 12 12 12 11 11 13 15 15 14 15 13 10 8
43 46 47 44 40 38 37 35 34 36 37 34 31 29 25 23 25 26 25 23 21 20 21 21 21 23 24 24 23 20 17 17 17 15 13 14 15 14 13 12 10 10 9
40 42 43 41 38 37 35 32 33 37 38 35 35 34 31 27 27 27 26 24 23 24 25 24 24 27 28 28 27 25 23 23 22 18 14 14 15 16 15 10 8 9 11
41 41 39 36 35 34 33 31 31 35 36 33 33 34 33 32 30 28 27 27 28 30 31 31 29 28 27 25 23 22 24 26 26 22 18 16 19 23 20 13 9 10 13
47 46 42 36 33 32 31 30 30 32 34 33 31 32 32 31 28 24 23 26 31 35 37 36 32 28 26 21 16 13 16 22 25 26 23 20 23 27 25 19 15 15 15
49 46 41 35 32 31 30 29 30 31 33 34 33 32 31 28 22 16 16 22 29 34 37 35 31 28 27 26 19 13 14 17 21 26 26 22 23 27 27 24 23 23 20
46 42 37 35 34 32 32 32 32 33 35 35 34 34 32 26 16 9 10 17 25 29 32 32 30 28 27 29 27 22 21 19 17 19 22 20 20 23 23 23 25 26 24
40 39 38 38 38 35 34 35 36 37 38 37 35 34 31 24 12 4 6 15 21 23 25 27 27 25 22 21 24 26 26 22 15 12 12 12 12 13 15 18 22 23 23
34 36 36 38 39 36 34 35 37 39 40 38 36 34 31 24 11 3 4 13 19 21 22 22 21 18 13 11 16 22 23 20 16 14 11 11 12 12 12 17 21 23 25
29 31 32 34 36 35 35 35 37 39 39 39 37 34 29 21 11 3 3 9 16 20 21 18 15 10 6 5 10 15 15 14 16 18 18 19 20 19 19 22 26 28 30
25 28 31 32 32 33 36 37 37 37 36 36 34 30 24 18 11 5 2 4 10 16 18 16 11 6 2 1 4 6 6 7 12 16 19 22 24 25 26 27 29 30 30
22 27 31 31 29 31 34 35 34 33 31 30 29 26 21 16 11 6 3 2 5 10 13 11 7 2 1 1 1 1 2 5 10 14 17 20 23 27 29 29 28 27 27
20 23 26 27 27 27 29 28 28 27 26 25 26 24 21 16 10 6 5 4 4 6 9 8 6 4 3 3 2 1 3 6 10 13 16 18 20 25 28 27 26 24 23
19 19 21 23 23 22 21 20 19 19 18 20 21 20 17 13 7 4 5 6 6 6 7 8 9 9 8 7 5 4 6 8 11 13 14 14 14 18 22 24 25 24 23
21 19 17 17 17 15 15 14 11 9 8 9 10 9 9 7 3 1 2 3 4 4 5 8 10 12 11 9 8 7 9 10 11 12 11 10 10 12 17 21 23 23 23
19 16 13 12 12 11 11 11 9 6 3 2 1 2 2 2 1 0 0 0 0 1 3 6 9 11 12 10 9 8 9 9 9 8 8 8 8 9 13 17 19 21 21
9 9 10 10 9 10 9 10 9 7 4 2 1 0 0 0 0 0 0 0 1 1 3 5 8 10 10 9 7 6 6 6 5 5 5 5 6 6 9 12 14 15 15
2 4 7 8 7 7 7 8 9 8 6 3 2 1 0 0 0 0 0 1 2 3 3 5 7 8 8 5 3 2 3 3 3 3 3 4 4 4 5 8 9 10 10
1 2 3 4 4 4 5 6 7 6 4 4 4 3 1 1 1 1 1 2 3 3 4 5 6 7 6 3 2 1 1 2 3 3 3 3 3 3 4 6 6 7 7
0 0 1 1 2 3 3 4 3 2 2 3 4 4 3 2 2 2 2 3 4 4 4 5 6 6 5 3 3 2 1 1 2 2 2 3 3 3 4 5 6 7 7
0 1 1 1 1 2 2 2 1 0 1 1 2 3 3 3 3 3 3 3 4 5 6 6 6 5 5 4 3 2 1 0 1 1 1 1 2 3 3 4 6 6 6
1 1 2 1 1 1 1 1 0 0 0 0 0 1 2 3 3 3 3 3 3 3 5 5 4 4 4 3 3 2 1 0 0 0 0 0 1 1 2 4 5 6 6
2 2 2 1 0 0 0 0 0 0 0 0 0 0 1 3 3 3 3 3 2 1 2 3 3 3 2 3 3 2 1 0 0 0 1 1 1 1 1 3 5 5 5
2 2 2 1 0 0 0 0 0 0 0 0 0 0 1 2 3 3 3 3 2 0 0 2 2 2 1 1 2 1 0 0 0 0 1 2 2 2 1 3 5 6 5
1 2 2 1 0 0 0 0 0 0 0 0 0 0 0 1 3 3 3 3 1 0 1 2 3 2 1 0 1 1 1 0 0 0 1 3 3 2 2 3 5 6 5

GEFSGL_con_probscp_240.txt.gz
Probability
56 56 54 52 51 48 44 43 43 44 45 45 41 35 29 27 30 30 27 25 25 26 27 27 27 28 24 20 19 19 20 19 15 12 16 22 26 25 23 22 18 13 12
60 59 59 58 57 53 50 49 47 44 44 44 43 38 33 31 32 33 30 28 27 27 27 29 30 31 30 28 25 23 22 23 22 20 20 24 27 28 27 24 18 13 12
58 59 60 61 60 58 57 55 51 48 47 46 45 43 41 39 37 36 35 34 32 31 30 31 32 35 36 36 32 28 27 29 30 26 23 25 28 30 30 26 19 14 11
53 55 56 57 57 57 59 58 56 53 52 50 47 45 44 42 39 36 36 37 37 35 33 31 31 32 34 32 29 28 29 32 34 30 26 27 29 31 32 28 20 15 12
55 54 55 54 55 57 60 59 57 55 51 48 46 43 42 39 34 31 31 34 36 36 34 31 28 27 25 22 20 20 24 30 34 33 31 30 29 29 30 26 20 15 14
60 59 56 55 54 57 60 58 57 54 48 44 43 43 41 35 27 22 24 29 32 33 32 31 28 24 21 18 15 13 16 21 27 30 29 27 26 25 25 22 18 15 14
59 60 59 57 56 56 56 55 55 55 51 46 44 43 41 34 22 14 16 24 30 31 31 30 28 26 24 22 18 15 14 15 16 20 22 22 23 24 23 20 18 17 16
56 57 58 58 56 53 52 52 54 54 53 49 46 44 41 33 19 10 10 20 29 32 30 28 28 27 24 21 21 20 20 17 12 11 15 17 18 20 19 17 17 18 18
53 53 54 54 52 51 51 52 53 52 50 46 43 42 40 32 19 8 9 18 28 29 26 23 23 22 19 16 17 21 21 18 12 8 9 9 8 8 10 12 15 17 16
50 49 49 47 46 48 50 52 52 50 46 42 41 41 39 33 21 9 10 20 26 25 21 19 17 16 13 11 13 17 17 16 13 9 6 4 4 3 4 9 15 17 16
47 46 45 44 43 44 48 51 50 46 42 41 42 42 40 34 23 10 10 18 21 20 18 17 15 11 6 6 9 12 13 13 12 10 7 6 7 7 7 11 17 21 20
47 45 44 44 41 39 43 46 45 42 39 39 42 42 40 36 25 12 7 10 12 14 15 14 11 5 2 2 3 6 8 9 9 9 7 7 8 9 11 15 21 24 24
47 46 44 43 39 37 39 39 38 39 38 36 36 37 38 36 27 15 6 3 4 7 9 9 5 1 0 0 1 1 3 5 7 9 9 9 9 10 12 16 20 22 23
48 46 42 37 32 31 33 32 32 33 33 30 29 31 33 31 24 16 10 6 4 4 4 4 4 2 2 3 2 1 2 4 7 9 10 10 10 12 13 15 16 17 19
47 43 37 29 23 23 24 24 23 23 20 19 20 23 23 21 16 12 11 9 7 5 4 5 6 6 5 6 6 4 4 5 7 9 9 9 10 11 13 13 14 14 15
43 38 30 22 18 16 16 14 14 12 8 6 9 11 11 10 7 6 6 6 5 3 4 6 7 7 8 8 8 8 7 8 9 9 8 8 9 10 11 11 11 12 13
37 32 24 18 14 12 10 8 7 6 4 2 2 3 3 3 3 2 2 1 1 1 3 5 5 6 7 8 9 9 9 9 9 9 9 9 9 10 10 9 10 10 10
28 24 19 15 10 9 8 6 5 4 4 4 2 1 1 1 1 0 0 1 1 1 3 4 3 4 6 8 9 9 8 7 8 9 10 10 10 10 9 9 8 7 7
21 17 14 12 9 7 6 5 3 2 3 4 3 2 1 1 1 0 1 3 3 2 3 3 2 3 6 8 9 8 7 6 6 8 10 10 10 10 10 9 6 4 4
16 12 10 9 8 5 4 3 2 1 2 3 3 2 1 2 2 2 3 5 5 3 3 3 3 4 6 8 9 8 6 6 7 9 10 10 10 10 9 8 4 2 2
10 6 4 5 6 5 3 2 2 1 2 2 2 1 1 2 3 5 6 7 6 4 3 3 4 6 7 9 8 7 6 6 7 9 10 10 10 10 9 6 3 1 1
7 4 2 3 5 5 3 2 2 1 2 2 1 0 0 1 3 5 7 7 5 4 3 3 3 5 7 8 7 6 6 6 7 8 9 9 9 9 8 5 1 0 0
8 5 3 3 5 5 5 3 1 0 1 1 0 0 0 1 3 5 6 6 4 3 2 1 1 2 4 5 5 4 4 4 5 6 7 7 6 6 6 3 1 0 1
9 7 5 5 5 5 5 3 1 0 0 0 0 0 1 2 4 5 5 4 3 1 1 0 0 1 1 3 3 3 3 3 3 4 4 4 3 3 2 2 1 1 2
7 6 5 5 5 4 4 2 2 1 0 0 0 0 1 2 3 4 5 4 3 1 1 0 0 0 0 1 3 3 1 1 1 2 3 3 2 2 1 1 0 1 2
5 5 4 4 4 4 3 2 3 3 1 0 0 0 1 1 1 2 3 4 3 2 2 1 0 0 0 1 2 2 1 0 0 1 2 3 3 2 1 1 1 2 3

GEFSGL_con_probscp_246.txt.gz
Probability
34 34 32 26 23 22 20 17 15 15 16 16 15 14 14 13 11 9 6 5 5 4 1 1 0 0 0 0 0 1 3 4 4 3 2 1 1 2 2 1 1 1 1
36 36 34 31 27 25 24 22 19 16 15 16 17 17 17 17 16 14 12 10 9 6 3 2 2 1 1 0 1 2 4 5 5 4 3 2 2 3 3 2 2 2 2
38 38 38 36 32 30 29 27 23 19 16 16 18 20 20 21 21 19 17 16 14 9 6 4 4 4 3 3 4 5 6 6 6 5 4 3 3 4 4 3 3 3 3
37 38 38 37 35 33 32 29 25 20 17 17 19 21 22 23 22 20 18 16 14 11 8 6 5 4 4 6 8 8 8 8 7 6 5 4 3 4 4 5 4 3 2
36 36 35 34 33 33 32 30 25 20 17 17 20 23 24 23 20 18 16 13 12 10 8 6 5 4 5 7 8 8 9 8 8 7 6 5 4 4 4 5 4 3 2
34 33 31 29 30 31 31 30 24 19 17 17 19 23 23 22 19 16 13 11 10 9 6 5 5 5 5 5 5 5 6 7 7 8 7 7 5 4 4 3 2 2 2
29 27 24 25 29 31 31 30 26 20 17 17 18 21 22 20 16 12 9 9 9 7 5 5 6 6 4 3 3 3 4 5 6 7 7 7 6 5 3 1 0 1 1
22 20 20 24 28 31 32 32 28 22 17 16 17 19 19 17 13 8 6 7 8 7 6 8 9 6 4 3 3 3 3 4 4 4 5 5 5 5 3 1 0 0 0
19 18 20 24 27 30 31 30 26 21 18 17 17 18 16 13 10 7 7 8 9 8 7 8 7 4 2 2 2 2 2 2 2 1 2 3 3 3 2 1 1 1 1
17 18 20 23 25 26 27 25 22 19 18 19 18 17 15 12 8 6 7 11 10 6 4 5 4 2 0 1 1 1 1 1 0 0 1 1 1 1 1 1 1 2 2
17 18 21 23 23 22 22 22 21 20 19 19 19 17 15 11 8 5 6 10 9 5 3 2 2 1 0 0 1 1 1 0 0 0 0 0 0 1 2 1 1 1 2
20 20 21 21 21 21 21 22 22 21 20 19 19 18 14 10 7 5 4 5 6 5 3 2 2 2 1 0 1 2 2 1 0 0 0 0 0 1 2 1 0 1 3
21 21 19 17 17 18 19 20 22 22 21 20 19 16 12 9 6 3 2 2 3 4 3 1 2 2 1 0 0 1 2 2 1 0 0 0 0 0 1 1 0 1 3
20 18 14 11 11 12 13 14 17 18 18 17 16 12 9 7 6 4 2 2 2 2 2 1 1 1 1 1 0 1 2 2 1 1 1 1 0 0 0 0 1 1 2
16 14 10 7 6 6 6 7 9 10 10 11 9 6 5 6 6 4 3 3 3 2 2 1 1 1 1 1 1 1 2 1 1 1 1 1 0 0 0 0 1 2 2
13 11 8 5 3 3 3 3 3 3 3 3 2 2 3 4 3 2 2 2 2 1 1 2 2 2 2 3 4 3 1 0 0 0 1 1 0 0 0 0 1 1 1
10 10 8 5 3 3 3 2 1 1 1 0 0 0 1 2 1 0 0 0 0 0 1 2 3 3 3 4 4 3 1 0 0 0 0 1 1 0 0 0 0 0 0
8 9 8 7 5 4 4 4 3 2 1 0 0 0 0 0 0 0 0 0 0 0 1 2 3 3 3 3 3 3 2 1 0 0 0 0 1 0 0 0 0 0 0
6 8 9 7 6 5 5 5 5 4 1 0 0 0 0 0 0 0 0 0 0 0 1 2 3 3 3 3 2 3 3 1 0 1 1 1 1 1 0 0 0 0 0
5 6 7 6 5 4 4 4 4 3 1 0 0 0 0 0 0 0 0 0 0 0 1 2 3 3 3 2 2 2 3 2 1 1 2 2 2 2 1 1 0 0 0
4 4 4 3 3 3 3 3 3 2 1 0 0 0 0 0 0 0 0 0 0 0 1 2 3 3 3 2 1 2 3 2 1 1 2 3 3 3 3 2 1 1 0
4 3 2 1 1 2 3 3 2 1 0 0 0 0 0 0 0 0 0 0 0 0 1 2 3 3 3 2 1 1 3 2 1 0 1 2 3 3 3 3 3 2 1
3 3 3 2 1 1 2 2 1 0 0 0 0 0 0 0 0 0 0 0 0 0 1 2 3 3 2 1 0 1 2 2 1 0 0 1 1 2 2 2 3 2 1
4 4 5 4 2 0 1 1 0 0 0 0 0 0 0 0 0 0 0 0 0 0 1 2 2 2 1 0 0 1 2 2 1 0 0 0 0 1 1 1 1 1 1
4 5 5 4 2 1 1 1 0 0 0 0 0 0 0 0 0 0 0 0 0 0 0 1 1 1 0 0 0 1 2 1 0 0 0 0 0 0 0 0 0 0 0
4 4 4 2 2 2 2 2 1 0 0 0 0 0 0 0 0 0 0 0 0 0 0 0 0 0 0 0 1 1 1 0 0 0 0 0 0 0 0 0 0 0 0

GEFSGL_con_probscp_252.txt.gz
Probability
20 18 17 15 14 13 12 10 9 8 6 7 8 8 8 10 12 13 13 12 11 9 8 7 4 1 1 1 0 0 1 1 1 1 0 1 1 1 1 2 4 3 2
24 22 21 19 19 19 19 17 15 12 9 8 9 9 9 11 13 13 13 13 12 11 11 9 5 3 2 2 2 2 2 2 2 2 2 2 2 2 1 2 3 3 2
29 29 27 26 27 30 30 25 21 17 13 11 11 12 12 13 14 14 15 16 14 12 12 10 7 4 4 4 4 5 5 5 6 6 4 4 4 3 3 3 3 3 2
30 32 32 31 33 34 32 27 22 18 16 14 13 14 15 15 15 17 18 18 16 13 13 12 9 6 4 4 5 7 8 8 8 7 5 5 5 4 3 3 3 2 2
28 31 32 32 32 31 28 24 21 19 18 16 15 15 15 15 15 16 19 19 17 14 14 13 10 7 3 2 3 6 7 6 6 6 5 6 6 5 4 3 3 1 1
25 26 26 26 27 26 24 22 21 21 20 18 17 16 15 13 11 12 15 17 16 14 13 12 9 6 2 1 1 2 3 3 3 3 3 4 5 5 4 3 3 1 0
20 20 20 21 22 22 20 18 20 21 19 18 18 18 16 13 9 7 9 14 16 15 13 11 8 4 2 1 1 1 1 1 1 1 1 1 2 3 3 3 3 2 1
17 16 16 17 18 18 17 16 17 18 17 16 17 18 18 15 10 6 7 11 14 16 15 13 10 6 2 1 1 0 1 1 0 0 0 0 1 1 2 3 3 1 0
13 13 13 14 16 17 17 15 15 16 14 12 13 16 17 15 11 6 7 9 13 15 15 14 12 7 2 0 0 1 2 1 0 0 0 0 0 0 1 2 1 0 0
9 10 11 12 14 16 16 16 16 16 13 11 12 14 15 14 10 6 5 8 13 14 13 11 9 5 1 0 0 1 2 1 0 0 0 0 0 0 0 0 0 0 0
8 10 11 12 12 13 15 15 16 16 14 13 14 14 13 12 9 4 3 7 12 14 12 9 5 2 0 0 0 1 1 0 0 0 0 0 0 0 0 0 0 0 0
11 11 11 11 11 12 12 13 14 15 15 16 17 15 12 10 7 3 2 4 9 12 12 8 4 1 0 0 0 0 0 0 0 0 0 0 0 0 0 0 0 0 0
13 12 11 10 11 12 12 11 11 11 13 15 17 15 11 8 6 4 2 2 4 8 8 5 2 1 0 0 0 0 0 1 1 1 1 1 0 0 0 0 0 0 0
12 11 10 11 12 13 13 12 10 9 10 12 14 13 9 6 6 6 4 2 3 4 5 4 2 1 0 0 0 0 1 2 2 2 2 2 1 0 0 0 0 0 0
11 10 10 11 11 11 10 9 9 8 8 10 11 9 7 5 6 6 5 4 3 3 4 4 3 2 1 1 1 2 2 3 3 3 3 3 1 0 0 0 0 0 0
12 11 10 9 8 7 6 5 5 6 6 7 6 6 5 4 3 3 3 3 3 3 4 4 4 3 2 2 2 3 3 3 3 3 3 3 2 1 0 0 0 0 0
12 11 9 7 6 4 3 3 3 4 3 3 2 3 3 2 1 1 1 1 1 1 3 4 3 2 1 1 1 1 1 1 2 3 3 3 3 2 1 0 0 0 0
10 9 7 5 4 3 3 3 3 3 3 1 0 1 1 1 0 0 0 0 1 1 3 3 3 2 0 0 0 0 0 0 1 1 2 3 3 2 1 0 0 0 0
7 6 4 3 3 3 3 2 3 3 3 2 0 0 0 0 0 0 0 1 2 2 2 2 2 2 1 0 0 0 0 0 0 0 1 3 3 2 1 0 0 0 0
4 3 1 1 1 3 3 3 3 3 2 1 0 0 0 0 0 0 0 1 2 2 1 1 1 1 1 0 0 0 0 0 0 1 1 3 3 3 1 0 0 0 0
1 1 0 0 1 2 3 3 2 1 1 0 0 0 0 0 0 0 0 0 1 1 0 0 0 1 0 0 0 0 0 0 0 1 2 3 3 3 2 0 0 1 1
0 0 0 0 0 1 1 2 1 0 0 0 0 0 0 0 0 0 0 0 0 0 0 0 1 1 1 0 0 0 0 0 0 1 3 3 4 4 2 0 0 1 2
0 0 0 0 0 0 0 1 1 1 1 0 0 0 0 0 0 0 0 0 0 0 0 0 1 2 1 0 0 0 0 0 0 1 2 3 3 3 2 1 0 1 2
0 0 0 0 0 0 0 0 2 3 2 1 0 0 0 0 1 0 0 0 0 0 0 0 0 1 1 0 0 0 0 0 0 0 1 3 3 3 3 2 1 0 1
0 0 0 0 0 0 0 1 3 4 3 1 1 1 0 0 0 0 0 0 0 0 0 0 0 0 0 0 0 0 0 0 0 0 1 2 3 3 2 1 1 0 0
0 0 0 0 0 0 1 2 3 4 3 2 2 2 1 0 0 0 0 0 0 0 0 0 0 0 0 0 0 0 0 0 0 0 0 1 3 2 1 1 0 0 0